Observation data for Amarillo 7 South Southeast on 02/15/2017      Previous  Date  Next       Current Mesonet Observations  Soil Data  Daily Summary Page  Observations in Plain Language
KAM1 150600Z 30008KT M03/M05 A3019 RMK A01 T10271050  RH  084%=      5-min Rain = 0
KAM1 150601Z 30007KT M03/M05 A3019 RMK A01 T10271050  RH  084%=      5-min Rain = 0
KAM1 150602Z 30007KT M03/M05 A3019 RMK A01 T10271050  RH  084%=      5-min Rain = 0
KAM1 150603Z 30007KT M03/M05 A3019 RMK A01 T10271049  RH  084%=      5-min Rain = 0
KAM1 150604Z 30007KT M03/M05 A3019 RMK A01 T10271049  RH  085%=      5-min Rain = 0
KAM1 150605Z 30007KT M03/M05 A3019 RMK A01 T10271049  RH  085%=      5-min Rain = 0
KAM1 150606Z 30008KT M03/M05 A3019 RMK A01 T10271049  RH  085%=      5-min Rain = 0
KAM1 150607Z 30008KT M03/M05 A302 RMK A01 T10271049  RH  085%=      5-min Rain = 0
KAM1 150608Z 31008KT M03/M05 A302 RMK A01 T10271049  RH  085%=      5-min Rain = 0
KAM1 150609Z 31008KT M03/M05 A302 RMK A01 T10261049  RH  084%=      5-min Rain = 0
KAM1 150610Z 31008KT M03/M05 A302 RMK A01 T10261049  RH  084%=      5-min Rain = 0
KAM1 150611Z 31008KT M03/M05 A302 RMK A01 T10261049  RH  084%=      5-min Rain = 0
KAM1 150612Z 31008KT M03/M05 A302 RMK A01 T10261049  RH  084%=      5-min Rain = 0
KAM1 150613Z 31008KT M03/M05 A302 RMK A01 T10261049  RH  084%=      5-min Rain = 0
KAM1 150614Z 31008KT M03/M05 A302 RMK A01 T10261050  RH  084%=      5-min Rain = 0
KAM1 150615Z 31008KT M03/M05 A302 RMK A01 T10261050  RH  084%=      5-min Rain = 0
KAM1 150616Z 31008KT M03/M05 A302 RMK A01 T10271050  RH  084%=      5-min Rain = 0
KAM1 150617Z 31008KT M03/M05 A302 RMK A01 T10261049  RH  084%=      5-min Rain = 0
KAM1 150618Z 31008KT M03/M05 A302 RMK A01 T10261050  RH  084%=      5-min Rain = 0
KAM1 150619Z 31007KT M03/M05 A302 RMK A01 T10261050  RH  084%=      5-min Rain = 0
KAM1 150620Z 31007KT M03/M05 A302 RMK A01 T10271050  RH  084%=      5-min Rain = 0
KAM1 150621Z 31007KT M03/M05 A302 RMK A01 T10271051  RH  084%=      5-min Rain = 0
KAM1 150622Z 31007KT M03/M05 A302 RMK A01 T10271050  RH  084%=      5-min Rain = 0
KAM1 150623Z 31007KT M03/M05 A302 RMK A01 T10271050  RH  084%=      5-min Rain = 0
KAM1 150624Z 31007KT M03/M05 A302 RMK A01 T10261050  RH  084%=      5-min Rain = 0
KAM1 150625Z 31007KT M03/M05 A302 RMK A01 T10261050  RH  084%=      5-min Rain = 0
KAM1 150626Z 31007KT M03/M05 A302 RMK A01 T10261050  RH  084%=      5-min Rain = 0
KAM1 150627Z 31007KT M03/M05 A302 RMK A01 T10261050  RH  083%=      5-min Rain = 0
KAM1 150628Z 31007KT M03/M05 A302 RMK A01 T10261050  RH  083%=      5-min Rain = 0
KAM1 150629Z 31007KT M03/M05 A302 RMK A01 T10261051  RH  083%=      5-min Rain = 0
KAM1 150630Z 31007KT M03/M05 A302 RMK A01 T10261050  RH  084%=      5-min Rain = 0
KAM1 150631Z 31007KT M03/M05 A302 RMK A01 T10271050  RH  084%=      5-min Rain = 0
KAM1 150632Z 31007KT M03/M05 A3019 RMK A01 T10271050  RH  084%=      5-min Rain = 0
KAM1 150633Z 30007KT M03/M05 A3019 RMK A01 T10271051  RH  084%=      5-min Rain = 0
KAM1 150634Z 31007KT M03/M05 A3019 RMK A01 T10271051  RH  084%=      5-min Rain = 0
KAM1 150635Z 31007KT M03/M05 A3019 RMK A01 T10281051  RH  084%=      5-min Rain = 0
KAM1 150636Z 31007KT M03/M05 A3019 RMK A01 T10281051  RH  084%=      5-min Rain = 0
KAM1 150637Z 31007KT M03/M05 A3019 RMK A01 T10281051  RH  084%=      5-min Rain = 0
KAM1 150638Z 31007KT M03/M05 A3019 RMK A01 T10281051  RH  084%=      5-min Rain = 0
KAM1 150639Z 31007KT M03/M05 A3019 RMK A01 T10281051  RH  084%=      5-min Rain = 0
KAM1 150640Z 31007KT M03/M05 A3019 RMK A01 T10281051  RH  084%=      5-min Rain = 0
KAM1 150641Z 31008KT M03/M05 A3019 RMK A01 T10281051  RH  084%=      5-min Rain = 0
KAM1 150642Z 31008KT M03/M05 A3019 RMK A01 T10271050  RH  084%=      5-min Rain = 0
KAM1 150643Z 31008KT M03/M05 A3019 RMK A01 T10271050  RH  084%=      5-min Rain = 0
KAM1 150644Z 31008KT M03/M05 A3019 RMK A01 T10261050  RH  084%=      5-min Rain = 0
KAM1 150645Z 31008KT M03/M05 A3019 RMK A01 T10251049  RH  084%=      5-min Rain = 0
KAM1 150646Z 31008KT M03/M05 A3019 RMK A01 T10251049  RH  083%=      5-min Rain = 0
KAM1 150647Z 31008KT M02/M05 A3019 RMK A01 T10241049  RH  083%=      5-min Rain = 0
KAM1 150648Z 31009KT M02/M05 A3019 RMK A01 T10231048  RH  083%=      5-min Rain = 0
KAM1 150649Z 31009KT M02/M05 A3019 RMK A01 T10231048  RH  083%=      5-min Rain = 0
KAM1 150650Z 31009KT M02/M05 A3019 RMK A01 T10221048  RH  082%=      5-min Rain = 0
KAM1 150651Z 31009KT M02/M05 A3019 RMK A01 T10211048  RH  082%=      5-min Rain = 0
KAM1 150652Z 31008KT M02/M05 A3019 RMK A01 T10211048  RH  082%=      5-min Rain = 0
KAM1 150653Z 31008KT M02/M05 A3019 RMK A01 T10211048  RH  082%=      5-min Rain = 0
KAM1 150654Z 31008KT M02/M05 A3019 RMK A01 T10211049  RH  082%=      5-min Rain = 0
KAM1 150655Z 31008KT M02/M05 A3019 RMK A01 T10211049  RH  082%=      5-min Rain = 0
KAM1 150656Z 31008KT M02/M05 A3019 RMK A01 T10211048  RH  082%=      5-min Rain = 0
KAM1 150657Z 31008KT M02/M05 A3019 RMK A01 T10211049  RH  082%=      5-min Rain = 0
KAM1 150658Z 31008KT M02/M05 A3019 RMK A01 T10211049  RH  082%=      5-min Rain = 0
KAM1 150659Z 31008KT M02/M05 A3019 RMK A01 T10221049  RH  082%=      5-min Rain = 0
KAM1 150700Z 31008KT M02/M05 A3019 RMK A01 T10221049  RH  082%=      5-min Rain = 0
KAM1 150701Z 31008KT M02/M05 A3019 RMK A01 T10221049  RH  082%=      5-min Rain = 0
KAM1 150702Z 31007KT M02/M05 A3019 RMK A01 T10221048  RH  082%=      5-min Rain = 0
KAM1 150703Z 31007KT M02/M05 A3019 RMK A01 T10221049  RH  082%=      5-min Rain = 0
KAM1 150704Z 31007KT M02/M05 A3019 RMK A01 T10211048  RH  082%=      5-min Rain = 0
KAM1 150705Z 31008KT M02/M05 A3019 RMK A01 T10211048  RH  082%=      5-min Rain = 0
KAM1 150706Z 31008KT M02/M05 A302 RMK A01 T10211048  RH  082%=      5-min Rain = 0
KAM1 150707Z 31007KT M02/M05 A302 RMK A01 T10211048  RH  082%=      5-min Rain = 0
KAM1 150708Z 31007KT M02/M05 A302 RMK A01 T10211048  RH  082%=      5-min Rain = 0
KAM1 150709Z 31007KT M02/M05 A302 RMK A01 T10201048  RH  082%=      5-min Rain = 0
KAM1 150710Z 31007KT M02/M05 A302 RMK A01 T10201047  RH  082%=      5-min Rain = 0
KAM1 150711Z 31007KT M02/M05 A302 RMK A01 T10201047  RH  081%=      5-min Rain = 0
KAM1 150712Z 31008KT M02/M05 A302 RMK A01 T10201048  RH  081%=      5-min Rain = 0
KAM1 150713Z 31008KT M02/M05 A302 RMK A01 T10201048  RH  081%=      5-min Rain = 0
KAM1 150714Z 31008KT M02/M05 A302 RMK A01 T10201048  RH  081%=      5-min Rain = 0
KAM1 150715Z 31008KT M02/M05 A302 RMK A01 T10201049  RH  081%=      5-min Rain = 0
KAM1 150716Z 31008KT M02/M05 A302 RMK A01 T10201049  RH  081%=      5-min Rain = 0
KAM1 150717Z 31009KT M02/M05 A302 RMK A01 T10201049  RH  081%=      5-min Rain = 0
KAM1 150718Z 30009KT M02/M05 A302 RMK A01 T10201049  RH  081%=      5-min Rain = 0
KAM1 150719Z 30008KT M02/M05 A302 RMK A01 T10201048  RH  081%=      5-min Rain = 0
KAM1 150720Z 30008KT M02/M05 A302 RMK A01 T10191048  RH  081%=      5-min Rain = 0
KAM1 150721Z 31008KT M02/M05 A302 RMK A01 T10191048  RH  081%=      5-min Rain = 0
KAM1 150722Z 31008KT M02/M05 A302 RMK A01 T10191048  RH  081%=      5-min Rain = 0
KAM1 150723Z 31008KT M02/M05 A302 RMK A01 T10191048  RH  081%=      5-min Rain = 0
KAM1 150724Z 31008KT M02/M05 A302 RMK A01 T10191048  RH  081%=      5-min Rain = 0
KAM1 150725Z 31008KT M02/M05 A302 RMK A01 T10191048  RH  081%=      5-min Rain = 0
KAM1 150726Z 31008KT M02/M05 A302 RMK A01 T10181047  RH  081%=      5-min Rain = 0
KAM1 150727Z 31007KT M02/M05 A302 RMK A01 T10181047  RH  081%=      5-min Rain = 0
KAM1 150728Z 31008KT M02/M05 A302 RMK A01 T10181047  RH  081%=      5-min Rain = 0
KAM1 150729Z 31007KT M02/M05 A302 RMK A01 T10181046  RH  081%=      5-min Rain = 0
KAM1 150730Z 31008KT M02/M05 A302 RMK A01 T10181047  RH  080%=      5-min Rain = 0
KAM1 150731Z 31008KT M02/M05 A302 RMK A01 T10181047  RH  080%=      5-min Rain = 0
KAM1 150732Z 31008KT M02/M05 A302 RMK A01 T10181047  RH  081%=      5-min Rain = 0
KAM1 150733Z 31008KT M02/M05 A302 RMK A01 T10181047  RH  081%=      5-min Rain = 0
KAM1 150734Z 31008KT M02/M05 A302 RMK A01 T10171046  RH  081%=      5-min Rain = 0
KAM1 150735Z 31008KT M02/M05 A302 RMK A01 T10171046  RH  081%=      5-min Rain = 0
KAM1 150736Z 31008KT M02/M05 A302 RMK A01 T10171046  RH  081%=      5-min Rain = 0
KAM1 150737Z 31008KT M02/M05 A302 RMK A01 T10181047  RH  081%=      5-min Rain = 0
KAM1 150738Z 31008KT M02/M05 A302 RMK A01 T10181047  RH  081%=      5-min Rain = 0
KAM1 150739Z 31008KT M02/M05 A302 RMK A01 T10191048  RH  081%=      5-min Rain = 0
KAM1 150740Z 31008KT M02/M05 A302 RMK A01 T10181047  RH  081%=      5-min Rain = 0
KAM1 150741Z 31009KT M02/M05 A302 RMK A01 T10181047  RH  081%=      5-min Rain = 0
KAM1 150742Z 31009KT M02/M05 A302 RMK A01 T10181047  RH  081%=      5-min Rain = 0
KAM1 150743Z 31009KT M02/M05 A302 RMK A01 T10181047  RH  080%=      5-min Rain = 0
KAM1 150744Z 31009KT M02/M05 A302 RMK A01 T10171046  RH  080%=      5-min Rain = 0
KAM1 150745Z 31009KT M02/M05 A302 RMK A01 T10171046  RH  080%=      5-min Rain = 0
KAM1 150746Z 31009KT M02/M05 A302 RMK A01 T10171046  RH  080%=      5-min Rain = 0
KAM1 150747Z 31008KT M02/M05 A302 RMK A01 T10171046  RH  080%=      5-min Rain = 0
KAM1 150748Z 31008KT M02/M05 A302 RMK A01 T10171046  RH  080%=      5-min Rain = 0
KAM1 150749Z 30008KT M02/M05 A302 RMK A01 T10161046  RH  080%=      5-min Rain = 0
KAM1 150750Z 31009KT M02/M05 A302 RMK A01 T10161046  RH  080%=      5-min Rain = 0
KAM1 150751Z 31009KT M02/M05 A302 RMK A01 T10161046  RH  080%=      5-min Rain = 0
KAM1 150752Z 31009KT M02/M05 A302 RMK A01 T10161046  RH  080%=      5-min Rain = 0
KAM1 150753Z 31009KT M02/M05 A302 RMK A01 T10161046  RH  080%=      5-min Rain = 0
KAM1 150754Z 31009KT M02/M05 A302 RMK A01 T10151045  RH  080%=      5-min Rain = 0
KAM1 150755Z 31008KT M02/M05 A302 RMK A01 T10151045  RH  080%=      5-min Rain = 0
KAM1 150756Z 31008KT M02/M05 A302 RMK A01 T10151045  RH  080%=      5-min Rain = 0
KAM1 150757Z 31009KT M02/M05 A302 RMK A01 T10151046  RH  080%=      5-min Rain = 0
KAM1 150758Z 31009KT M02/M05 A302 RMK A01 T10161046  RH  080%=      5-min Rain = 0
KAM1 150759Z 31008KT M02/M05 A302 RMK A01 T10161046  RH  080%=      5-min Rain = 0
KAM1 150800Z 31008KT M02/M05 A302 RMK A01 T10161047  RH  080%=      5-min Rain = 0
KAM1 150801Z 31008KT M02/M05 A302 RMK A01 T10171047  RH  080%=      5-min Rain = 0
KAM1 150802Z 31008KT M02/M05 A302 RMK A01 T10171047  RH  080%=      5-min Rain = 0
KAM1 150803Z 31008KT M02/M05 A302 RMK A01 T10171047  RH  080%=      5-min Rain = 0
KAM1 150804Z 31008KT M02/M05 A302 RMK A01 T10171047  RH  080%=      5-min Rain = 0
KAM1 150805Z 31008KT M02/M05 A302 RMK A01 T10181047  RH  080%=      5-min Rain = 0
KAM1 150806Z 31008KT M02/M05 A302 RMK A01 T10181047  RH  080%=      5-min Rain = 0
KAM1 150807Z 30008KT M02/M05 A302 RMK A01 T10181047  RH  080%=      5-min Rain = 0
KAM1 150808Z 30008KT M02/M05 A302 RMK A01 T10181047  RH  081%=      5-min Rain = 0
KAM1 150809Z 31008KT M02/M05 A302 RMK A01 T10181047  RH  081%=      5-min Rain = 0
KAM1 150810Z 30008KT M02/M05 A302 RMK A01 T10181047  RH  081%=      5-min Rain = 0
KAM1 150811Z 30008KT M02/M05 A302 RMK A01 T10181047  RH  081%=      5-min Rain = 0
KAM1 150812Z 30008KT M02/M05 A302 RMK A01 T10181047  RH  081%=      5-min Rain = 0
KAM1 150813Z 30008KT M02/M05 A302 RMK A01 T10181047  RH  081%=      5-min Rain = 0
KAM1 150814Z 30008KT M02/M05 A3021 RMK A01 T10181047  RH  080%=      5-min Rain = 0
KAM1 150815Z 30008KT M02/M05 A3021 RMK A01 T10181047  RH  080%=      5-min Rain = 0
KAM1 150816Z 30008KT M02/M05 A3021 RMK A01 T10181047  RH  080%=      5-min Rain = 0
KAM1 150817Z 30008KT M02/M05 A3021 RMK A01 T10181047  RH  080%=      5-min Rain = 0
KAM1 150818Z 30008KT M02/M05 A3021 RMK A01 T10181048  RH  080%=      5-min Rain = 0
KAM1 150819Z 30008KT M02/M05 A3021 RMK A01 T10191048  RH  080%=      5-min Rain = 0
KAM1 150820Z 30008KT M02/M05 A3021 RMK A01 T10191049  RH  080%=      5-min Rain = 0
KAM1 150821Z 30008KT M02/M05 A3021 RMK A01 T10201049  RH  081%=      5-min Rain = 0
KAM1 150822Z 30008KT M02/M05 A3021 RMK A01 T10201049  RH  081%=      5-min Rain = 0
KAM1 150823Z 30008KT M02/M05 A3021 RMK A01 T10201049  RH  081%=      5-min Rain = 0
KAM1 150824Z 30008KT M02/M05 A3021 RMK A01 T10211050  RH  081%=      5-min Rain = 0
KAM1 150825Z 30008KT M02/M05 A3021 RMK A01 T10221050  RH  081%=      5-min Rain = 0
KAM1 150826Z 30008KT M02/M05 A3021 RMK A01 T10231050  RH  081%=      5-min Rain = 0
KAM1 150827Z 30007KT M02/M05 A3021 RMK A01 T10231051  RH  081%=      5-min Rain = 0
KAM1 150828Z 30008KT M02/M05 A3021 RMK A01 T10241052  RH  082%=      5-min Rain = 0
KAM1 150829Z 30008KT M03/M05 A3021 RMK A01 T10251052  RH  082%=      5-min Rain = 0
KAM1 150830Z 30008KT M03/M05 A3021 RMK A01 T10261053  RH  082%=      5-min Rain = 0
KAM1 150831Z 30008KT M03/M05 A3021 RMK A01 T10271053  RH  082%=      5-min Rain = 0
KAM1 150832Z 30008KT M03/M05 A3021 RMK A01 T10271053  RH  083%=      5-min Rain = 0
KAM1 150833Z 30008KT M03/M05 A3021 RMK A01 T10281054  RH  083%=      5-min Rain = 0
KAM1 150834Z 30008KT M03/M05 A3021 RMK A01 T10291054  RH  083%=      5-min Rain = 0
KAM1 150835Z 30008KT M03/M05 A3021 RMK A01 T10291053  RH  083%=      5-min Rain = 0
KAM1 150836Z 30008KT M03/M05 A3021 RMK A01 T10291053  RH  083%=      5-min Rain = 0
KAM1 150837Z 30008KT M03/M05 A3021 RMK A01 T10291053  RH  083%=      5-min Rain = 0
KAM1 150838Z 30008KT M03/M05 A3021 RMK A01 T10291053  RH  083%=      5-min Rain = 0
KAM1 150839Z 30008KT M03/M05 A3021 RMK A01 T10281053  RH  083%=      5-min Rain = 0
KAM1 150840Z 30008KT M03/M05 A3021 RMK A01 T10281053  RH  083%=      5-min Rain = 0
KAM1 150841Z 30008KT M03/M05 A3021 RMK A01 T10281053  RH  083%=      5-min Rain = 0
KAM1 150842Z 30008KT M03/M05 A3021 RMK A01 T10281053  RH  083%=      5-min Rain = 0
KAM1 150843Z 30008KT M03/M05 A3021 RMK A01 T10281053  RH  083%=      5-min Rain = 0
KAM1 150844Z 30008KT M03/M05 A3021 RMK A01 T10281053  RH  083%=      5-min Rain = 0
KAM1 150845Z 30008KT M03/M05 A3021 RMK A01 T10281053  RH  083%=      5-min Rain = 0
KAM1 150846Z 30008KT M03/M05 A3021 RMK A01 T10291054  RH  083%=      5-min Rain = 0
KAM1 150847Z 30008KT M03/M05 A3021 RMK A01 T10291053  RH  083%=      5-min Rain = 0
KAM1 150848Z 30008KT M03/M05 A3021 RMK A01 T10291053  RH  083%=      5-min Rain = 0
KAM1 150849Z 30008KT M03/M05 A3021 RMK A01 T10291053  RH  083%=      5-min Rain = 0
KAM1 150850Z 30008KT M03/M05 A3021 RMK A01 T10291053  RH  083%=      5-min Rain = 0
KAM1 150851Z 30008KT M03/M05 A3021 RMK A01 T10291053  RH  083%=      5-min Rain = 0
KAM1 150852Z 30008KT M03/M05 A3021 RMK A01 T10291054  RH  083%=      5-min Rain = 0
KAM1 150853Z 30007KT M03/M05 A3021 RMK A01 T10291054  RH  083%=      5-min Rain = 0
KAM1 150854Z 30008KT M03/M05 A3021 RMK A01 T10291054  RH  083%=      5-min Rain = 0
KAM1 150855Z 30008KT M03/M05 A3021 RMK A01 T10291054  RH  083%=      5-min Rain = 0
KAM1 150856Z 30008KT M03/M05 A3021 RMK A01 T10291054  RH  083%=      5-min Rain = 0
KAM1 150857Z 31008KT M03/M05 A3021 RMK A01 T10291054  RH  083%=      5-min Rain = 0
KAM1 150858Z 31008KT M03/M05 A3021 RMK A01 T10291054  RH  083%=      5-min Rain = 0
KAM1 150859Z 31008KT M03/M05 A3021 RMK A01 T10291054  RH  083%=      5-min Rain = 0
KAM1 150900Z 31008KT M03/M05 A3021 RMK A01 T10281053  RH  083%=      5-min Rain = 0
KAM1 150901Z 31008KT M03/M05 A3021 RMK A01 T10271052  RH  083%=      5-min Rain = 0
KAM1 150902Z 31008KT M03/M05 A3021 RMK A01 T10271052  RH  083%=      5-min Rain = 0
KAM1 150903Z 31008KT M03/M05 A3021 RMK A01 T10271052  RH  083%=      5-min Rain = 0
KAM1 150904Z 31008KT M03/M05 A3021 RMK A01 T10261052  RH  082%=      5-min Rain = 0
KAM1 150905Z 31009KT M03/M05 A3021 RMK A01 T10261052  RH  082%=      5-min Rain = 0
KAM1 150906Z 31009KT M03/M05 A3021 RMK A01 T10251052  RH  082%=      5-min Rain = 0
KAM1 150907Z 31009KT M03/M05 A3021 RMK A01 T10251052  RH  082%=      5-min Rain = 0
KAM1 150908Z 31009KT M03/M05 A3021 RMK A01 T10251052  RH  082%=      5-min Rain = 0
KAM1 150909Z 31008KT M03/M05 A3021 RMK A01 T10251052  RH  082%=      5-min Rain = 0
KAM1 150910Z 31008KT M03/M05 A3021 RMK A01 T10251052  RH  082%=      5-min Rain = 0
KAM1 150911Z 31008KT M03/M05 A3021 RMK A01 T10251052  RH  081%=      5-min Rain = 0
KAM1 150912Z 31009KT M03/M05 A3021 RMK A01 T10251052  RH  082%=      5-min Rain = 0
KAM1 150913Z 31009KT M03/M05 A3021 RMK A01 T10251052  RH  082%=      5-min Rain = 0
KAM1 150914Z 31009KT M03/M05 A3021 RMK A01 T10251052  RH  082%=      5-min Rain = 0
KAM1 150915Z 32009KT M02/M05 A3021 RMK A01 T10241051  RH  082%=      5-min Rain = 0
KAM1 150916Z 31008KT M02/M05 A3021 RMK A01 T10241051  RH  081%=      5-min Rain = 0
KAM1 150917Z 31008KT M02/M05 A3021 RMK A01 T10231051  RH  081%=      5-min Rain = 0
KAM1 150918Z 31008KT M02/M05 A3021 RMK A01 T10231051  RH  081%=      5-min Rain = 0
KAM1 150919Z 31008KT M02/M05 A3021 RMK A01 T10231052  RH  081%=      5-min Rain = 0
KAM1 150920Z 32008KT M02/M05 A3021 RMK A01 T10241052  RH  081%=      5-min Rain = 0
KAM1 150921Z 32008KT M02/M05 A3021 RMK A01 T10241052  RH  081%=      5-min Rain = 0
KAM1 150922Z 32008KT M02/M05 A3021 RMK A01 T10241052  RH  081%=      5-min Rain = 0
KAM1 150923Z 32007KT M02/M05 A3021 RMK A01 T10241052  RH  081%=      5-min Rain = 0
KAM1 150924Z 31008KT M02/M05 A3021 RMK A01 T10241052  RH  081%=      5-min Rain = 0
KAM1 150925Z 31007KT M02/M05 A3021 RMK A01 T10241053  RH  081%=      5-min Rain = 0
KAM1 150926Z 31007KT M03/M05 A3021 RMK A01 T10251053  RH  081%=      5-min Rain = 0
KAM1 150927Z 31007KT M03/M05 A3021 RMK A01 T10251054  RH  081%=      5-min Rain = 0
KAM1 150928Z 31008KT M03/M05 A3021 RMK A01 T10261054  RH  081%=      5-min Rain = 0
KAM1 150929Z 31008KT M03/M06 A3021 RMK A01 T10271055  RH  081%=      5-min Rain = 0
KAM1 150930Z 31008KT M03/M06 A3021 RMK A01 T10271055  RH  081%=      5-min Rain = 0
KAM1 150931Z 31008KT M03/M06 A3021 RMK A01 T10271055  RH  081%=      5-min Rain = 0
KAM1 150932Z 31008KT M03/M05 A3021 RMK A01 T10271054  RH  082%=      5-min Rain = 0
KAM1 150933Z 31008KT M03/M05 A3021 RMK A01 T10271054  RH  082%=      5-min Rain = 0
KAM1 150934Z 31008KT M03/M05 A3021 RMK A01 T10271054  RH  082%=      5-min Rain = 0
KAM1 150935Z 31008KT M03/M05 A3021 RMK A01 T10271054  RH  082%=      5-min Rain = 0
KAM1 150936Z 31008KT M03/M05 A3021 RMK A01 T10271054  RH  082%=      5-min Rain = 0
KAM1 150937Z 31008KT M03/M05 A3021 RMK A01 T10271054  RH  082%=      5-min Rain = 0
KAM1 150938Z 31008KT M03/M05 A3021 RMK A01 T10271054  RH  082%=      5-min Rain = 0
KAM1 150939Z 31008KT M03/M05 A3021 RMK A01 T10271054  RH  082%=      5-min Rain = 0
KAM1 150940Z 31008KT M03/M05 A3021 RMK A01 T10271054  RH  082%=      5-min Rain = 0
KAM1 150941Z 31008KT M03/M05 A3021 RMK A01 T10271054  RH  082%=      5-min Rain = 0
KAM1 150942Z 31008KT M03/M05 A3021 RMK A01 T10271054  RH  082%=      5-min Rain = 0
KAM1 150943Z 31008KT M03/M05 A3021 RMK A01 T10271054  RH  082%=      5-min Rain = 0
KAM1 150944Z 31009KT M03/M05 A3021 RMK A01 T10271053  RH  082%=      5-min Rain = 0
KAM1 150945Z 31008KT M03/M05 A3021 RMK A01 T10261053  RH  082%=      5-min Rain = 0
KAM1 150946Z 31008KT M03/M05 A3021 RMK A01 T10261053  RH  082%=      5-min Rain = 0
KAM1 150947Z 31008KT M03/M05 A3021 RMK A01 T10261053  RH  082%=      5-min Rain = 0
KAM1 150948Z 31008KT M03/M05 A3021 RMK A01 T10261053  RH  082%=      5-min Rain = 0
KAM1 150949Z 31008KT M03/M05 A3021 RMK A01 T10261053  RH  082%=      5-min Rain = 0
KAM1 150950Z 31008KT M03/M05 A3021 RMK A01 T10251052  RH  081%=      5-min Rain = 0
KAM1 150951Z 31009KT M03/M05 A3021 RMK A01 T10251053  RH  081%=      5-min Rain = 0
KAM1 150952Z 31008KT M03/M05 A3021 RMK A01 T10251053  RH  081%=      5-min Rain = 0
KAM1 150953Z 31008KT M03/M05 A3021 RMK A01 T10251053  RH  081%=      5-min Rain = 0
KAM1 150954Z 31009KT M03/M05 A3021 RMK A01 T10251053  RH  081%=      5-min Rain = 0
KAM1 150955Z 31009KT M03/M05 A3021 RMK A01 T10251053  RH  081%=      5-min Rain = 0
KAM1 150956Z 31009KT M03/M05 A3021 RMK A01 T10261053  RH  081%=      5-min Rain = 0
KAM1 150957Z 31009KT M03/M05 A3021 RMK A01 T10261053  RH  081%=      5-min Rain = 0
KAM1 150958Z 31008KT M03/M05 A3021 RMK A01 T10251053  RH  081%=      5-min Rain = 0
KAM1 150959Z 31008KT M03/M05 A3021 RMK A01 T10251053  RH  081%=      5-min Rain = 0
KAM1 151000Z 31008KT M03/M05 A3021 RMK A01 T10251053  RH  081%=      5-min Rain = 0
KAM1 151001Z 31008KT M03/M05 A3021 RMK A01 T10251053  RH  081%=      5-min Rain = 0
KAM1 151002Z 31009KT M03/M05 A3021 RMK A01 T10251053  RH  081%=      5-min Rain = 0
KAM1 151003Z 31009KT M03/M05 A3021 RMK A01 T10251054  RH  081%=      5-min Rain = 0
KAM1 151004Z 31008KT M03/M05 A3021 RMK A01 T10251054  RH  081%=      5-min Rain = 0
KAM1 151005Z 31008KT M03/M05 A3021 RMK A01 T10261054  RH  081%=      5-min Rain = 0
KAM1 151006Z 31008KT M03/M06 A3021 RMK A01 T10261055  RH  081%=      5-min Rain = 0
KAM1 151007Z 31008KT M03/M06 A3021 RMK A01 T10271056  RH  081%=      5-min Rain = 0
KAM1 151008Z 31008KT M03/M06 A3021 RMK A01 T10271056  RH  081%=      5-min Rain = 0
KAM1 151009Z 31008KT M03/M06 A3021 RMK A01 T10281057  RH  081%=      5-min Rain = 0
KAM1 151010Z 31008KT M03/M06 A3021 RMK A01 T10291057  RH  081%=      5-min Rain = 0
KAM1 151011Z 31008KT M03/M06 A3021 RMK A01 T10291057  RH  081%=      5-min Rain = 0
KAM1 151012Z 31008KT M03/M06 A3021 RMK A01 T10291057  RH  081%=      5-min Rain = 0
KAM1 151013Z 31008KT M03/M06 A3021 RMK A01 T10301057  RH  081%=      5-min Rain = 0
KAM1 151014Z 31008KT M03/M06 A3021 RMK A01 T10301057  RH  081%=      5-min Rain = 0
KAM1 151015Z 31008KT M03/M06 A3021 RMK A01 T10301057  RH  082%=      5-min Rain = 0
KAM1 151016Z 31008KT M03/M06 A3021 RMK A01 T10301057  RH  082%=      5-min Rain = 0
KAM1 151017Z 31008KT M03/M06 A3021 RMK A01 T10301057  RH  082%=      5-min Rain = 0
KAM1 151018Z 31008KT M03/M06 A3021 RMK A01 T10301057  RH  082%=      5-min Rain = 0
KAM1 151019Z 31008KT M03/M06 A3021 RMK A01 T10301057  RH  082%=      5-min Rain = 0
KAM1 151020Z 31008KT M03/M06 A3021 RMK A01 T10301057  RH  082%=      5-min Rain = 0
KAM1 151021Z 31008KT M03/M06 A3022 RMK A01 T10301057  RH  082%=      5-min Rain = 0
KAM1 151022Z 31008KT M03/M06 A3022 RMK A01 T10301057  RH  082%=      5-min Rain = 0
KAM1 151023Z 31008KT M03/M06 A3022 RMK A01 T10301057  RH  082%=      5-min Rain = 0
KAM1 151024Z 31008KT M03/M06 A3022 RMK A01 T10301057  RH  082%=      5-min Rain = 0
KAM1 151025Z 31008KT M03/M06 A3022 RMK A01 T10301057  RH  082%=      5-min Rain = 0
KAM1 151026Z 31008KT M03/M06 A3022 RMK A01 T10301057  RH  082%=      5-min Rain = 0
KAM1 151027Z 31008KT M03/M06 A3022 RMK A01 T10301057  RH  082%=      5-min Rain = 0
KAM1 151028Z 31008KT M03/M06 A3022 RMK A01 T10301057  RH  082%=      5-min Rain = 0
KAM1 151029Z 31008KT M03/M06 A3022 RMK A01 T10301057  RH  081%=      5-min Rain = 0
KAM1 151030Z 31008KT M03/M06 A3022 RMK A01 T10301057  RH  081%=      5-min Rain = 0
KAM1 151031Z 31008KT M03/M06 A3022 RMK A01 T10291057  RH  081%=      5-min Rain = 0
KAM1 151032Z 31008KT M03/M06 A3022 RMK A01 T10291057  RH  081%=      5-min Rain = 0
KAM1 151033Z 31008KT M03/M06 A3022 RMK A01 T10291057  RH  081%=      5-min Rain = 0
KAM1 151034Z 31008KT M03/M06 A3022 RMK A01 T10291057  RH  081%=      5-min Rain = 0
KAM1 151035Z 31008KT M03/M06 A3022 RMK A01 T10301058  RH  081%=      5-min Rain = 0
KAM1 151036Z 31008KT M03/M06 A3022 RMK A01 T10301058  RH  081%=      5-min Rain = 0
KAM1 151037Z 31008KT M03/M06 A3022 RMK A01 T10301058  RH  081%=      5-min Rain = 0
KAM1 151038Z 31009KT M03/M06 A3022 RMK A01 T10301058  RH  081%=      5-min Rain = 0
KAM1 151039Z 31008KT M03/M06 A3022 RMK A01 T10301057  RH  081%=      5-min Rain = 0
KAM1 151040Z 31008KT M03/M06 A3022 RMK A01 T10301058  RH  081%=      5-min Rain = 0
KAM1 151041Z 31008KT M03/M06 A3022 RMK A01 T10301058  RH  081%=      5-min Rain = 0
KAM1 151042Z 31008KT M03/M06 A3022 RMK A01 T10301058  RH  081%=      5-min Rain = 0
KAM1 151043Z 31008KT M03/M06 A3022 RMK A01 T10311058  RH  082%=      5-min Rain = 0
KAM1 151044Z 31009KT M03/M06 A3022 RMK A01 T10311058  RH  082%=      5-min Rain = 0
KAM1 151045Z 31009KT M03/M06 A3022 RMK A01 T10311058  RH  082%=      5-min Rain = 0
KAM1 151046Z 31009KT M03/M06 A3022 RMK A01 T10311058  RH  082%=      5-min Rain = 0
KAM1 151047Z 31009KT M03/M06 A3022 RMK A01 T10311058  RH  082%=      5-min Rain = 0
KAM1 151048Z 31009KT M03/M06 A3022 RMK A01 T10311058  RH  082%=      5-min Rain = 0
KAM1 151049Z 31008KT M03/M06 A3022 RMK A01 T10311058  RH  082%=      5-min Rain = 0
KAM1 151050Z 32008KT M03/M06 A3022 RMK A01 T10311058  RH  082%=      5-min Rain = 0
KAM1 151051Z 31008KT M03/M06 A3022 RMK A01 T10321058  RH  082%=      5-min Rain = 0
KAM1 151052Z 32008KT M03/M06 A3022 RMK A01 T10311058  RH  082%=      5-min Rain = 0
KAM1 151053Z 31008KT M03/M06 A3022 RMK A01 T10311057  RH  082%=      5-min Rain = 0
KAM1 151054Z 31008KT M03/M06 A3022 RMK A01 T10311058  RH  082%=      5-min Rain = 0
KAM1 151055Z 31008KT M03/M06 A3022 RMK A01 T10311058  RH  082%=      5-min Rain = 0
KAM1 151056Z 31008KT M03/M06 A3022 RMK A01 T10311058  RH  081%=      5-min Rain = 0
KAM1 151057Z 31008KT M03/M06 A3022 RMK A01 T10311058  RH  082%=      5-min Rain = 0
KAM1 151058Z 31008KT M03/M06 A3022 RMK A01 T10321059  RH  082%=      5-min Rain = 0
KAM1 151059Z 31008KT M03/M06 A3022 RMK A01 T10321059  RH  082%=      5-min Rain = 0
KAM1 151100Z 31008KT M03/M06 A3022 RMK A01 T10331060  RH  082%=      5-min Rain = 0
KAM1 151101Z 31008KT M03/M06 A3022 RMK A01 T10331060  RH  082%=      5-min Rain = 0
KAM1 151102Z 31008KT M03/M06 A3022 RMK A01 T10331060  RH  082%=      5-min Rain = 0
KAM1 151103Z 32008KT M03/M06 A3022 RMK A01 T10331059  RH  082%=      5-min Rain = 0
KAM1 151104Z 31008KT M03/M06 A3022 RMK A01 T10331059  RH  082%=      5-min Rain = 0
KAM1 151105Z 31008KT M03/M06 A3022 RMK A01 T10331059  RH  082%=      5-min Rain = 0
KAM1 151106Z 31008KT M03/M06 A3022 RMK A01 T10331059  RH  082%=      5-min Rain = 0
KAM1 151107Z 31008KT M03/M06 A3022 RMK A01 T10341060  RH  082%=      5-min Rain = 0
KAM1 151108Z 31007KT M03/M06 A3022 RMK A01 T10341060  RH  082%=      5-min Rain = 0
KAM1 151109Z 32007KT M04/M06 A3022 RMK A01 T10351060  RH  082%=      5-min Rain = 0
KAM1 151110Z 32007KT M04/M06 A3022 RMK A01 T10351060  RH  083%=      5-min Rain = 0
KAM1 151111Z 32007KT M04/M06 A3022 RMK A01 T10351060  RH  083%=      5-min Rain = 0
KAM1 151112Z 32007KT M04/M06 A3022 RMK A01 T10351060  RH  083%=      5-min Rain = 0
KAM1 151113Z 32007KT M04/M06 A3022 RMK A01 T10351059  RH  083%=      5-min Rain = 0
KAM1 151114Z 32007KT M04/M06 A3022 RMK A01 T10351059  RH  083%=      5-min Rain = 0
KAM1 151115Z 32007KT M04/M06 A3022 RMK A01 T10351059  RH  083%=      5-min Rain = 0
KAM1 151116Z 32007KT M03/M06 A3022 RMK A01 T10341059  RH  083%=      5-min Rain = 0
KAM1 151117Z 32008KT M03/M06 A3022 RMK A01 T10341059  RH  083%=      5-min Rain = 0
KAM1 151118Z 32007KT M03/M06 A3022 RMK A01 T10341059  RH  083%=      5-min Rain = 0
KAM1 151119Z 32007KT M03/M06 A3022 RMK A01 T10341059  RH  083%=      5-min Rain = 0
KAM1 151120Z 32007KT M03/M06 A3022 RMK A01 T10341059  RH  083%=      5-min Rain = 0
KAM1 151121Z 32007KT M03/M06 A3022 RMK A01 T10341059  RH  083%=      5-min Rain = 0
KAM1 151122Z 32007KT M03/M06 A3022 RMK A01 T10341059  RH  083%=      5-min Rain = 0
KAM1 151123Z 32007KT M03/M06 A3022 RMK A01 T10341060  RH  083%=      5-min Rain = 0
KAM1 151124Z 32007KT M03/M06 A3022 RMK A01 T10341059  RH  083%=      5-min Rain = 0
KAM1 151125Z 32007KT M03/M06 A3022 RMK A01 T10341060  RH  083%=      5-min Rain = 0
KAM1 151126Z 32007KT M04/M06 A3022 RMK A01 T10351060  RH  083%=      5-min Rain = 0
KAM1 151127Z 32007KT M04/M06 A3022 RMK A01 T10351060  RH  083%=      5-min Rain = 0
KAM1 151128Z 32007KT M04/M06 A3022 RMK A01 T10361061  RH  083%=      5-min Rain = 0
KAM1 151129Z 32007KT M04/M06 A3022 RMK A01 T10361061  RH  083%=      5-min Rain = 0
KAM1 151130Z 32007KT M04/M06 A3022 RMK A01 T10371062  RH  083%=      5-min Rain = 0
KAM1 151131Z 32007KT M04/M06 A3022 RMK A01 T10371062  RH  083%=      5-min Rain = 0
KAM1 151132Z 32007KT M04/M06 A3022 RMK A01 T10381062  RH  083%=      5-min Rain = 0
KAM1 151133Z 32007KT M04/M06 A3022 RMK A01 T10381062  RH  083%=      5-min Rain = 0
KAM1 151134Z 32007KT M04/M06 A3022 RMK A01 T10381062  RH  083%=      5-min Rain = 0
KAM1 151135Z 32007KT M04/M06 A3022 RMK A01 T10381061  RH  084%=      5-min Rain = 0
KAM1 151136Z 32007KT M04/M06 A3022 RMK A01 T10381061  RH  084%=      5-min Rain = 0
KAM1 151137Z 32007KT M04/M06 A3022 RMK A01 T10381061  RH  084%=      5-min Rain = 0
KAM1 151138Z 32007KT M04/M06 A3022 RMK A01 T10371061  RH  084%=      5-min Rain = 0
KAM1 151139Z 32007KT M04/M06 A3022 RMK A01 T10371061  RH  084%=      5-min Rain = 0
KAM1 151140Z 32007KT M04/M06 A3022 RMK A01 T10371061  RH  084%=      5-min Rain = 0
KAM1 151141Z 32007KT M04/M06 A3022 RMK A01 T10371060  RH  084%=      5-min Rain = 0
KAM1 151142Z 32007KT M04/M06 A3022 RMK A01 T10361060  RH  084%=      5-min Rain = 0
KAM1 151143Z 32007KT M04/M06 A3022 RMK A01 T10371061  RH  084%=      5-min Rain = 0
KAM1 151144Z 32007KT M04/M06 A3022 RMK A01 T10371061  RH  084%=      5-min Rain = 0
KAM1 151145Z 32007KT M04/M06 A3022 RMK A01 T10371061  RH  084%=      5-min Rain = 0
KAM1 151146Z 32007KT M04/M06 A3022 RMK A01 T10381061  RH  084%=      5-min Rain = 0
KAM1 151147Z 32007KT M04/M06 A3022 RMK A01 T10381062  RH  084%=      5-min Rain = 0
KAM1 151148Z 32007KT M04/M06 A3022 RMK A01 T10381061  RH  084%=      5-min Rain = 0
KAM1 151149Z 32008KT M04/M06 A3022 RMK A01 T10381061  RH  084%=      5-min Rain = 0
KAM1 151150Z 32008KT M04/M06 A3022 RMK A01 T10381061  RH  084%=      5-min Rain = 0
KAM1 151151Z 32008KT M04/M06 A3022 RMK A01 T10371060  RH  084%=      5-min Rain = 0
KAM1 151152Z 32008KT M04/M06 A3022 RMK A01 T10371060  RH  084%=      5-min Rain = 0
KAM1 151153Z 32007KT M04/M06 A3022 RMK A01 T10371060  RH  084%=      5-min Rain = 0
KAM1 151154Z 32008KT M04/M06 A3022 RMK A01 T10371060  RH  084%=      5-min Rain = 0
KAM1 151155Z 32008KT M04/M06 A3022 RMK A01 T10371061  RH  084%=      5-min Rain = 0
KAM1 151156Z 32008KT M04/M06 A3022 RMK A01 T10371061  RH  084%=      5-min Rain = 0
KAM1 151157Z 32008KT M04/M06 A3022 RMK A01 T10371061  RH  084%=      5-min Rain = 0
KAM1 151158Z 32008KT M04/M06 A3022 RMK A01 T10371060  RH  084%=      5-min Rain = 0
KAM1 151159Z 32008KT M04/M06 A3022 RMK A01 T10371061  RH  084%=      5-min Rain = 0
KAM1 151200Z 32008KT M04/M06 A3022 RMK A01 T10371060  RH  084%=      5-min Rain = 0
KAM1 151201Z 32008KT M04/M06 A3022 RMK A01 T10361060  RH  084%=      5-min Rain = 0
KAM1 151202Z 32008KT M04/M06 A3022 RMK A01 T10361060  RH  084%=      5-min Rain = 0
KAM1 151203Z 32008KT M04/M06 A3022 RMK A01 T10361060  RH  084%=      5-min Rain = 0
KAM1 151204Z 32008KT M04/M06 A3022 RMK A01 T10361060  RH  084%=      5-min Rain = 0
KAM1 151205Z 32008KT M04/M06 A3022 RMK A01 T10351059  RH  084%=      5-min Rain = 0
KAM1 151206Z 32008KT M04/M06 A3022 RMK A01 T10361060  RH  084%=      5-min Rain = 0
KAM1 151207Z 32008KT M04/M06 A3022 RMK A01 T10361060  RH  084%=      5-min Rain = 0
KAM1 151208Z 32008KT M04/M06 A3022 RMK A01 T10351059  RH  084%=      5-min Rain = 0
KAM1 151209Z 32008KT M04/M06 A3022 RMK A01 T10351059  RH  083%=      5-min Rain = 0
KAM1 151210Z 32008KT M04/M06 A3022 RMK A01 T10351059  RH  083%=      5-min Rain = 0
KAM1 151211Z 32007KT M04/M06 A3022 RMK A01 T10351059  RH  083%=      5-min Rain = 0
KAM1 151212Z 32007KT M04/M06 A3022 RMK A01 T10351059  RH  083%=      5-min Rain = 0
KAM1 151213Z 32007KT M04/M06 A3022 RMK A01 T10351059  RH  083%=      5-min Rain = 0
KAM1 151214Z 32007KT M04/M06 A3022 RMK A01 T10351059  RH  083%=      5-min Rain = 0
KAM1 151215Z 32007KT M04/M06 A3022 RMK A01 T10351060  RH  083%=      5-min Rain = 0
KAM1 151216Z 32008KT M04/M06 A3022 RMK A01 T10351060  RH  083%=      5-min Rain = 0
KAM1 151217Z 32008KT M04/M06 A3022 RMK A01 T10351060  RH  083%=      5-min Rain = 0
KAM1 151218Z 32008KT M04/M06 A3022 RMK A01 T10351059  RH  083%=      5-min Rain = 0
KAM1 151219Z 32008KT M04/M06 A3022 RMK A01 T10351059  RH  083%=      5-min Rain = 0
KAM1 151220Z 32008KT M04/M06 A3022 RMK A01 T10351059  RH  083%=      5-min Rain = 0
KAM1 151221Z 32008KT M04/M06 A3022 RMK A01 T10351059  RH  083%=      5-min Rain = 0
KAM1 151222Z 32008KT M04/M06 A3022 RMK A01 T10351059  RH  083%=      5-min Rain = 0
KAM1 151223Z 32008KT M04/M06 A3022 RMK A01 T10351059  RH  084%=      5-min Rain = 0
KAM1 151224Z 32008KT M03/M06 A3022 RMK A01 T10341058  RH  084%=      5-min Rain = 0
KAM1 151225Z 32008KT M03/M06 A3022 RMK A01 T10341058  RH  083%=      5-min Rain = 0
KAM1 151226Z 32008KT M03/M06 A3022 RMK A01 T10341058  RH  083%=      5-min Rain = 0
KAM1 151227Z 32008KT M03/M06 A3022 RMK A01 T10341058  RH  083%=      5-min Rain = 0
KAM1 151228Z 32008KT M03/M06 A3022 RMK A01 T10331058  RH  083%=      5-min Rain = 0
KAM1 151229Z 33008KT M03/M06 A3022 RMK A01 T10331058  RH  083%=      5-min Rain = 0
KAM1 151230Z 33008KT M03/M06 A3022 RMK A01 T10331058  RH  083%=      5-min Rain = 0
KAM1 151231Z 32007KT M03/M06 A3022 RMK A01 T10331058  RH  083%=      5-min Rain = 0
KAM1 151232Z 32008KT M03/M06 A3022 RMK A01 T10341059  RH  083%=      5-min Rain = 0
KAM1 151233Z 33008KT M03/M06 A3022 RMK A01 T10341059  RH  083%=      5-min Rain = 0
KAM1 151234Z 32008KT M03/M06 A3022 RMK A01 T10341059  RH  083%=      5-min Rain = 0
KAM1 151235Z 32008KT M04/M06 A3022 RMK A01 T10351060  RH  083%=      5-min Rain = 0
KAM1 151236Z 32008KT M04/M06 A3022 RMK A01 T10351060  RH  083%=      5-min Rain = 0
KAM1 151237Z 32008KT M04/M06 A3022 RMK A01 T10351059  RH  083%=      5-min Rain = 0
KAM1 151238Z 32008KT M04/M06 A3022 RMK A01 T10351059  RH  083%=      5-min Rain = 0
KAM1 151239Z 32008KT M03/M06 A3022 RMK A01 T10341059  RH  083%=      5-min Rain = 0
KAM1 151240Z 32008KT M04/M06 A3022 RMK A01 T10351059  RH  083%=      5-min Rain = 0
KAM1 151241Z 32008KT M04/M06 A3022 RMK A01 T10351059  RH  083%=      5-min Rain = 0
KAM1 151242Z 32008KT M04/M06 A3022 RMK A01 T10351059  RH  083%=      5-min Rain = 0
KAM1 151243Z 32008KT M03/M06 A3022 RMK A01 T10341058  RH  083%=      5-min Rain = 0
KAM1 151244Z 32008KT M03/M06 A3022 RMK A01 T10341058  RH  083%=      5-min Rain = 0
KAM1 151245Z 32008KT M03/M06 A3022 RMK A01 T10331058  RH  083%=      5-min Rain = 0
KAM1 151246Z 32008KT M03/M06 A3022 RMK A01 T10331058  RH  083%=      5-min Rain = 0
KAM1 151247Z 32008KT M03/M06 A3022 RMK A01 T10331058  RH  083%=      5-min Rain = 0
KAM1 151248Z 32008KT M03/M06 A3022 RMK A01 T10331058  RH  083%=      5-min Rain = 0
KAM1 151249Z 33008KT M03/M06 A3022 RMK A01 T10331058  RH  083%=      5-min Rain = 0
KAM1 151250Z 32008KT M03/M06 A3022 RMK A01 T10341059  RH  083%=      5-min Rain = 0
KAM1 151251Z 32008KT M03/M06 A3022 RMK A01 T10341059  RH  083%=      5-min Rain = 0
KAM1 151252Z 32008KT M03/M06 A3022 RMK A01 T10341059  RH  083%=      5-min Rain = 0
KAM1 151253Z 32008KT M03/M06 A3022 RMK A01 T10341059  RH  083%=      5-min Rain = 0
KAM1 151254Z 32008KT M03/M06 A3022 RMK A01 T10341059  RH  083%=      5-min Rain = 0
KAM1 151255Z 32008KT M03/M06 A3022 RMK A01 T10341059  RH  083%=      5-min Rain = 0
KAM1 151256Z 32008KT M03/M06 A3022 RMK A01 T10341059  RH  083%=      5-min Rain = 0
KAM1 151257Z 32008KT M04/M06 A3022 RMK A01 T10351060  RH  083%=      5-min Rain = 0
KAM1 151258Z 32008KT M04/M06 A3022 RMK A01 T10351060  RH  083%=      5-min Rain = 0
KAM1 151259Z 32008KT M03/M06 A3022 RMK A01 T10341059  RH  083%=      5-min Rain = 0
KAM1 151300Z 32008KT M03/M06 A3023 RMK A01 T10341059  RH  083%=      5-min Rain = 0
KAM1 151301Z 32008KT M03/M06 A3023 RMK A01 T10341059  RH  083%=      5-min Rain = 0
KAM1 151302Z 32008KT M03/M06 A3023 RMK A01 T10341059  RH  083%=      5-min Rain = 0
KAM1 151303Z 32008KT M03/M06 A3023 RMK A01 T10341059  RH  083%=      5-min Rain = 0
KAM1 151304Z 32008KT M03/M06 A3023 RMK A01 T10341060  RH  083%=      5-min Rain = 0
KAM1 151305Z 32009KT M03/M06 A3023 RMK A01 T10341060  RH  083%=      5-min Rain = 0
KAM1 151306Z 32008KT M03/M06 A3023 RMK A01 T10341059  RH  083%=      5-min Rain = 0
KAM1 151307Z 32008KT M03/M06 A3023 RMK A01 T10341059  RH  083%=      5-min Rain = 0
KAM1 151308Z 33008KT M03/M06 A3023 RMK A01 T10341059  RH  083%=      5-min Rain = 0
KAM1 151309Z 32008KT M03/M06 A3023 RMK A01 T10341058  RH  083%=      5-min Rain = 0
KAM1 151310Z 32008KT M03/M06 A3023 RMK A01 T10341059  RH  083%=      5-min Rain = 0
KAM1 151311Z 32008KT M03/M06 A3023 RMK A01 T10341059  RH  083%=      5-min Rain = 0
KAM1 151312Z 32008KT M03/M06 A3023 RMK A01 T10341059  RH  083%=      5-min Rain = 0
KAM1 151313Z 32008KT M03/M06 A3023 RMK A01 T10341059  RH  083%=      5-min Rain = 0
KAM1 151314Z 32009KT M03/M06 A3023 RMK A01 T10331059  RH  083%=      5-min Rain = 0
KAM1 151315Z 32009KT M03/M06 A3023 RMK A01 T10331058  RH  083%=      5-min Rain = 0
KAM1 151316Z 32009KT M03/M06 A3023 RMK A01 T10331058  RH  083%=      5-min Rain = 0
KAM1 151317Z 32008KT M03/M06 A3023 RMK A01 T10321058  RH  082%=      5-min Rain = 0
KAM1 151318Z 32008KT M03/M06 A3023 RMK A01 T10321058  RH  082%=      5-min Rain = 0
KAM1 151319Z 32008KT M03/M06 A3023 RMK A01 T10331059  RH  082%=      5-min Rain = 0
KAM1 151320Z 32008KT M03/M06 A3023 RMK A01 T10331059  RH  082%=      5-min Rain = 0
KAM1 151321Z 31008KT M03/M06 A3023 RMK A01 T10341059  RH  083%=      5-min Rain = 0
KAM1 151322Z 31008KT M03/M06 A3023 RMK A01 T10341060  RH  083%=      5-min Rain = 0
KAM1 151323Z 31008KT M04/M06 A3023 RMK A01 T10361061  RH  083%=      5-min Rain = 0
KAM1 151324Z 31008KT M04/M06 A3023 RMK A01 T10371062  RH  083%=      5-min Rain = 0
KAM1 151325Z 31008KT M04/M06 A3023 RMK A01 T10381063  RH  083%=      5-min Rain = 0
KAM1 151326Z 31008KT M04/M06 A3023 RMK A01 T10391063  RH  083%=      5-min Rain = 0
KAM1 151327Z 31008KT M04/M06 A3023 RMK A01 T10391064  RH  083%=      5-min Rain = 0
KAM1 151328Z 31008KT M04/M06 A3023 RMK A01 T10401064  RH  084%=      5-min Rain = 0
KAM1 151329Z 31008KT M04/M06 A3023 RMK A01 T10411064  RH  084%=      5-min Rain = 0
KAM1 151330Z 31008KT M04/M06 A3023 RMK A01 T10411063  RH  084%=      5-min Rain = 0
KAM1 151331Z 32008KT M04/M06 A3023 RMK A01 T10411063  RH  084%=      5-min Rain = 0
KAM1 151332Z 32008KT M04/M06 A3023 RMK A01 T10411063  RH  084%=      5-min Rain = 0
KAM1 151333Z 32008KT M04/M06 A3023 RMK A01 T10411063  RH  085%=      5-min Rain = 0
KAM1 151334Z 31008KT M04/M06 A3023 RMK A01 T10411063  RH  085%=      5-min Rain = 0
KAM1 151335Z 31008KT M04/M06 A3023 RMK A01 T10411063  RH  085%=      5-min Rain = 0
KAM1 151336Z 31008KT M04/M06 A3023 RMK A01 T10411063  RH  085%=      5-min Rain = 0
KAM1 151337Z 31008KT M04/M06 A3024 RMK A01 T10401063  RH  084%=      5-min Rain = 0
KAM1 151338Z 31008KT M04/M06 A3024 RMK A01 T10411063  RH  084%=      5-min Rain = 0
KAM1 151339Z 31008KT M04/M06 A3024 RMK A01 T10401063  RH  084%=      5-min Rain = 0
KAM1 151340Z 31008KT M04/M06 A3024 RMK A01 T10401063  RH  084%=      5-min Rain = 0
KAM1 151341Z 31008KT M04/M06 A3024 RMK A01 T10401063  RH  084%=      5-min Rain = 0
KAM1 151342Z 32008KT M04/M06 A3024 RMK A01 T10391062  RH  084%=      5-min Rain = 0
KAM1 151343Z 32008KT M04/M06 A3024 RMK A01 T10381061  RH  084%=      5-min Rain = 0
KAM1 151344Z 32008KT M04/M06 A3024 RMK A01 T10381061  RH  084%=      5-min Rain = 0
KAM1 151345Z 32008KT M04/M06 A3024 RMK A01 T10381062  RH  084%=      5-min Rain = 0
KAM1 151346Z 32008KT M04/M06 A3024 RMK A01 T10381062  RH  083%=      5-min Rain = 0
KAM1 151347Z 32008KT M04/M06 A3024 RMK A01 T10371062  RH  083%=      5-min Rain = 0
KAM1 151348Z 32008KT M04/M06 A3024 RMK A01 T10371061  RH  083%=      5-min Rain = 0
KAM1 151349Z 32008KT M04/M06 A3024 RMK A01 T10361061  RH  083%=      5-min Rain = 0
KAM1 151350Z 32008KT M04/M06 A3024 RMK A01 T10351060  RH  083%=      5-min Rain = 0
KAM1 151351Z 32008KT M04/M06 A3024 RMK A01 T10351060  RH  083%=      5-min Rain = 0
KAM1 151352Z 32007KT M03/M06 A3024 RMK A01 T10341060  RH  083%=      5-min Rain = 0
KAM1 151353Z 32007KT M03/M06 A3024 RMK A01 T10341059  RH  083%=      5-min Rain = 0
KAM1 151354Z 32007KT M03/M06 A3024 RMK A01 T10341059  RH  083%=      5-min Rain = 0
KAM1 151355Z 32007KT M03/M06 A3024 RMK A01 T10341059  RH  082%=      5-min Rain = 0
KAM1 151356Z 32007KT M03/M06 A3024 RMK A01 T10331059  RH  082%=      5-min Rain = 0
KAM1 151357Z 31007KT M03/M06 A3024 RMK A01 T10331059  RH  082%=      5-min Rain = 0
KAM1 151358Z 32007KT M03/M06 A3024 RMK A01 T10321058  RH  082%=      5-min Rain = 0
KAM1 151359Z 32007KT M03/M06 A3024 RMK A01 T10321058  RH  082%=      5-min Rain = 0
KAM1 151400Z 32007KT M03/M06 A3024 RMK A01 T10311058  RH  082%=      5-min Rain = 0
KAM1 151401Z 32007KT M03/M06 A3024 RMK A01 T10311057  RH  082%=      5-min Rain = 0
KAM1 151402Z 32006KT M03/M06 A3025 RMK A01 T10301056  RH  082%=      5-min Rain = 0
KAM1 151403Z 32006KT M03/M06 A3025 RMK A01 T10291056  RH  082%=      5-min Rain = 0
KAM1 151404Z 32006KT M03/M06 A3025 RMK A01 T10291055  RH  082%=      5-min Rain = 0
KAM1 151405Z 32006KT M03/M05 A3025 RMK A01 T10281054  RH  082%=      5-min Rain = 0
KAM1 151406Z 32006KT M03/M05 A3025 RMK A01 T10271054  RH  082%=      5-min Rain = 0
KAM1 151407Z 32006KT M03/M05 A3025 RMK A01 T10261053  RH  082%=      5-min Rain = 0
KAM1 151408Z 32006KT M03/M05 A3025 RMK A01 T10261053  RH  082%=      5-min Rain = 0
KAM1 151409Z 32006KT M03/M05 A3025 RMK A01 T10251052  RH  082%=      5-min Rain = 0
KAM1 151410Z 32006KT M02/M05 A3025 RMK A01 T10241051  RH  081%=      5-min Rain = 0
KAM1 151411Z 32006KT M02/M05 A3025 RMK A01 T10221050  RH  081%=      5-min Rain = 0
KAM1 151412Z 31006KT M02/M05 A3025 RMK A01 T10211050  RH  081%=      5-min Rain = 0
KAM1 151413Z 32005KT M02/M05 A3025 RMK A01 T10201049  RH  081%=      5-min Rain = 0
KAM1 151414Z 32005KT M02/M05 A3025 RMK A01 T10191049  RH  080%=      5-min Rain = 0
KAM1 151415Z 32005KT M02/M05 A3025 RMK A01 T10191048  RH  080%=      5-min Rain = 0
KAM1 151416Z 32005KT M02/M05 A3025 RMK A01 T10181048  RH  080%=      5-min Rain = 0
KAM1 151417Z 32005KT M02/M05 A3025 RMK A01 T10171047  RH  080%=      5-min Rain = 0
KAM1 151418Z 31005KT M02/M05 A3025 RMK A01 T10161047  RH  079%=      5-min Rain = 0
KAM1 151419Z 31005KT M02/M05 A3025 RMK A01 T10151046  RH  079%=      5-min Rain = 0
KAM1 151420Z 32005KT M01/M05 A3025 RMK A01 T10141046  RH  079%=      5-min Rain = 0
KAM1 151421Z 31005KT M01/M05 A3025 RMK A01 T10131045  RH  079%=      5-min Rain = 0
KAM1 151422Z 31005KT M01/M05 A3025 RMK A01 T10121045  RH  078%=      5-min Rain = 0
KAM1 151423Z 32004KT M01/M04 A3025 RMK A01 T10111044  RH  078%=      5-min Rain = 0
KAM1 151424Z 32005KT M01/M04 A3025 RMK A01 T10111044  RH  078%=      5-min Rain = 0
KAM1 151425Z 31005KT M01/M04 A3025 RMK A01 T10101044  RH  078%=      5-min Rain = 0
KAM1 151426Z 31005KT M01/M04 A3025 RMK A01 T10091043  RH  078%=      5-min Rain = 0
KAM1 151427Z 31004KT M01/M04 A3025 RMK A01 T10081043  RH  078%=      5-min Rain = 0
KAM1 151428Z 31005KT M01/M04 A3025 RMK A01 T10081042  RH  078%=      5-min Rain = 0
KAM1 151429Z 31005KT M01/M04 A3025 RMK A01 T10071042  RH  077%=      5-min Rain = 0
KAM1 151430Z 31005KT M01/M04 A3025 RMK A01 T10071042  RH  077%=      5-min Rain = 0
KAM1 151431Z 31005KT M01/M04 A3025 RMK A01 T10061043  RH  076%=      5-min Rain = 0
KAM1 151432Z 31005KT M01/M04 A3025 RMK A01 T10061043  RH  076%=      5-min Rain = 0
KAM1 151433Z 31004KT M01/M04 A3025 RMK A01 T10061043  RH  076%=      5-min Rain = 0
KAM1 151434Z 31004KT M01/M04 A3025 RMK A01 T10051041  RH  077%=      5-min Rain = 0
KAM1 151435Z 31005KT M00/M04 A3026 RMK A01 T10041040  RH  077%=      5-min Rain = 0
KAM1 151436Z 31004KT M00/M04 A3026 RMK A01 T10041040  RH  076%=      5-min Rain = 0
KAM1 151437Z 31005KT M00/M04 A3026 RMK A01 T10031040  RH  076%=      5-min Rain = 0
KAM1 151438Z 31005KT M00/M04 A3026 RMK A01 T10021040  RH  076%=      5-min Rain = 0
KAM1 151439Z 31005KT M00/M04 A3026 RMK A01 T10021041  RH  075%=      5-min Rain = 0
KAM1 151440Z 31005KT M00/M04 A3026 RMK A01 T10021040  RH  075%=      5-min Rain = 0
KAM1 151441Z 31005KT M00/M04 A3026 RMK A01 T10011038  RH  076%=      5-min Rain = 0
KAM1 151442Z 31005KT 00/04 A3026 RMK A01 T00-00-38  RH  076%=      5-min Rain = 0
KAM1 151443Z 31006KT 00/M04 A3026 RMK A01 T00011038  RH  075%=      5-min Rain = 0
KAM1 151444Z 31006KT 00/M04 A3026 RMK A01 T00011039  RH  075%=      5-min Rain = 0
KAM1 151445Z 31005KT 00/M04 A3026 RMK A01 T00021038  RH  075%=      5-min Rain = 0
KAM1 151446Z 31004KT 00/M04 A3026 RMK A01 T00021038  RH  074%=      5-min Rain = 0
KAM1 151447Z 31005KT 00/M04 A3026 RMK A01 T00031037  RH  075%=      5-min Rain = 0
KAM1 151448Z 31006KT 00/M04 A3026 RMK A01 T00031037  RH  074%=      5-min Rain = 0
KAM1 151449Z 31006KT 00/M04 A3026 RMK A01 T00041038  RH  073%=      5-min Rain = 0
KAM1 151450Z 32005KT 00/M04 A3026 RMK A01 T00041039  RH  073%=      5-min Rain = 0
KAM1 151451Z 31005KT 00/M04 A3026 RMK A01 T00041038  RH  073%=      5-min Rain = 0
KAM1 151452Z 31005KT 01/M04 A3026 RMK A01 T00051037  RH  073%=      5-min Rain = 0
KAM1 151453Z 31004KT 01/M04 A3026 RMK A01 T00061036  RH  073%=      5-min Rain = 0
KAM1 151454Z 32006KT 01/M04 A3026 RMK A01 T00061036  RH  073%=      5-min Rain = 0
KAM1 151455Z 31005KT 01/M04 A3026 RMK A01 T00071038  RH  072%=      5-min Rain = 0
KAM1 151456Z 32006KT 01/M04 A3026 RMK A01 T00071038  RH  072%=      5-min Rain = 0
KAM1 151457Z 31005KT 01/M04 A3026 RMK A01 T00071039  RH  071%=      5-min Rain = 0
KAM1 151458Z 31005KT 01/M04 A3026 RMK A01 T00081037  RH  072%=      5-min Rain = 0
KAM1 151459Z 31005KT 01/M04 A3026 RMK A01 T00081038  RH  071%=      5-min Rain = 0
KAM1 151500Z 31005KT 01/M04 A3026 RMK A01 T00081037  RH  072%=      5-min Rain = 0
KAM1 151501Z 32005KT 01/M04 A3026 RMK A01 T00091036  RH  072%=      5-min Rain = 0
KAM1 151502Z 32005KT 01/M04 A3026 RMK A01 T00101035  RH  072%=      5-min Rain = 0
KAM1 151503Z 32005KT 01/M04 A3026 RMK A01 T00101037  RH  071%=      5-min Rain = 0
KAM1 151504Z 31005KT 01/M04 A3026 RMK A01 T00111035  RH  072%=      5-min Rain = 0
KAM1 151505Z 32005KT 01/M03 A3026 RMK A01 T00111034  RH  072%=      5-min Rain = 0
KAM1 151506Z 32007KT 01/M04 A3026 RMK A01 T00121036  RH  071%=      5-min Rain = 0
KAM1 151507Z 32006KT 01/M04 A3026 RMK A01 T00121038  RH  069%=      5-min Rain = 0
KAM1 151508Z 32007KT 01/M04 A3026 RMK A01 T00121039  RH  069%=      5-min Rain = 0
KAM1 151509Z 32007KT 01/M04 A3026 RMK A01 T00111040  RH  068%=      5-min Rain = 0
KAM1 151510Z 31006KT 01/M04 A3026 RMK A01 T00121039  RH  069%=      5-min Rain = 0
KAM1 151511Z 33007KT 01/M04 A3026 RMK A01 T00121039  RH  069%=      5-min Rain = 0
KAM1 151512Z 33007KT 01/M04 A3026 RMK A01 T00121040  RH  068%=      5-min Rain = 0
KAM1 151513Z 32006KT 01/M04 A3026 RMK A01 T00121039  RH  069%=      5-min Rain = 0
KAM1 151514Z 32007KT 01/M04 A3026 RMK A01 T00121039  RH  069%=      5-min Rain = 0
KAM1 151515Z 32007KT 01/M04 A3026 RMK A01 T00121041  RH  068%=      5-min Rain = 0
KAM1 151516Z 32006KT 01/M04 A3026 RMK A01 T00131039  RH  069%=      5-min Rain = 0
KAM1 151517Z 32007KT 01/M04 A3026 RMK A01 T00141038  RH  068%=      5-min Rain = 0
KAM1 151518Z 32006KT 01/M04 A3026 RMK A01 T00141039  RH  068%=      5-min Rain = 0
KAM1 151519Z 32007KT 02/M04 A3026 RMK A01 T00151039  RH  068%=      5-min Rain = 0
KAM1 151520Z 32006KT 02/M04 A3026 RMK A01 T00151040  RH  067%=      5-min Rain = 0
KAM1 151521Z 31006KT 02/M04 A3026 RMK A01 T00151039  RH  067%=      5-min Rain = 0
KAM1 151522Z 32005KT 02/M04 A3026 RMK A01 T00151039  RH  067%=      5-min Rain = 0
KAM1 151523Z 32006KT 02/M04 A3026 RMK A01 T00161035  RH  069%=      5-min Rain = 0
KAM1 151524Z 32006KT 02/M04 A3026 RMK A01 T00171036  RH  068%=      5-min Rain = 0
KAM1 151525Z 31006KT 02/M04 A3026 RMK A01 T00171039  RH  066%=      5-min Rain = 0
KAM1 151526Z 31006KT 02/M04 A3026 RMK A01 T00181039  RH  066%=      5-min Rain = 0
KAM1 151527Z 31006KT 02/M04 A3026 RMK A01 T00181039  RH  066%=      5-min Rain = 0
KAM1 151528Z 32006KT 02/M04 A3026 RMK A01 T00191039  RH  066%=      5-min Rain = 0
KAM1 151529Z 31005KT 02/M04 A3026 RMK A01 T00191039  RH  066%=      5-min Rain = 0
KAM1 151530Z 32006KT 02/M04 A3026 RMK A01 T00201035  RH  067%=      5-min Rain = 0
KAM1 151531Z 31006KT 02/M04 A3026 RMK A01 T00201037  RH  066%=      5-min Rain = 0
KAM1 151532Z 31007KT 02/M04 A3027 RMK A01 T00211037  RH  066%=      5-min Rain = 0
KAM1 151533Z 31006KT 02/M04 A3027 RMK A01 T00211037  RH  065%=      5-min Rain = 0
KAM1 151534Z 31006KT 02/M04 A3027 RMK A01 T00221036  RH  065%=      5-min Rain = 0
KAM1 151535Z 32006KT 02/M04 A3027 RMK A01 T00221038  RH  064%=      5-min Rain = 0
KAM1 151536Z 32007KT 02/M04 A3027 RMK A01 T00221039  RH  064%=      5-min Rain = 0
KAM1 151537Z 32007KT 02/M04 A3027 RMK A01 T00221038  RH  064%=      5-min Rain = 0
KAM1 151538Z 31007KT 02/M04 A3027 RMK A01 T00231037  RH  065%=      5-min Rain = 0
KAM1 151539Z 32007KT 02/M04 A3027 RMK A01 T00231038  RH  064%=      5-min Rain = 0
KAM1 151540Z 31007KT 02/M04 A3027 RMK A01 T00231040  RH  063%=      5-min Rain = 0
KAM1 151541Z 32006KT 02/M04 A3027 RMK A01 T00231038  RH  064%=      5-min Rain = 0
KAM1 151542Z 32006KT 02/M03 A3026 RMK A01 T00241033  RH  066%=      5-min Rain = 0
KAM1 151543Z 32006KT 03/M03 A3026 RMK A01 T00261033  RH  065%=      5-min Rain = 0
KAM1 151544Z 33006KT 03/M04 A3026 RMK A01 T00261036  RH  064%=      5-min Rain = 0
KAM1 151545Z 33006KT 03/M04 A3026 RMK A01 T00261035  RH  064%=      5-min Rain = 0
KAM1 151546Z 33006KT 03/M04 A3026 RMK A01 T00261036  RH  064%=      5-min Rain = 0
KAM1 151547Z 31005KT 03/M03 A3026 RMK A01 T00271033  RH  065%=      5-min Rain = 0
KAM1 151548Z 31006KT 03/M03 A3026 RMK A01 T00281031  RH  065%=      5-min Rain = 0
KAM1 151549Z 32006KT 03/M03 A3026 RMK A01 T00291033  RH  064%=      5-min Rain = 0
KAM1 151550Z 32006KT 03/M04 A3026 RMK A01 T00291036  RH  062%=      5-min Rain = 0
KAM1 151551Z 33005KT 03/M04 A3026 RMK A01 T00281035  RH  063%=      5-min Rain = 0
KAM1 151552Z 32007KT 03/M03 A3026 RMK A01 T00291028  RH  066%=      5-min Rain = 0
KAM1 151553Z 32007KT 03/M04 A3026 RMK A01 T00301035  RH  062%=      5-min Rain = 0
KAM1 151554Z 32007KT 03/M04 A3026 RMK A01 T00291036  RH  062%=      5-min Rain = 0
KAM1 151555Z 33006KT 03/M04 A3026 RMK A01 T00291035  RH  063%=      5-min Rain = 0
KAM1 151556Z 33006KT 03/M03 A3026 RMK A01 T00291034  RH  063%=      5-min Rain = 0
KAM1 151557Z 32007KT 03/M03 A3026 RMK A01 T00301031  RH  064%=      5-min Rain = 0
KAM1 151558Z 32006KT 03/M04 A3026 RMK A01 T00311035  RH  062%=      5-min Rain = 0
KAM1 151559Z 32006KT 03/M04 A3026 RMK A01 T00311035  RH  062%=      5-min Rain = 0
KAM1 151600Z 32007KT 03/M04 A3026 RMK A01 T00311035  RH  062%=      5-min Rain = 0
KAM1 151601Z 33007KT 03/M04 A3026 RMK A01 T00311035  RH  062%=      5-min Rain = 0
KAM1 151602Z 32005KT 03/M03 A3026 RMK A01 T00311033  RH  063%=      5-min Rain = 0
KAM1 151603Z 30006KT 03/M03 A3027 RMK A01 T00321031  RH  063%=      5-min Rain = 0
KAM1 151604Z 31005KT 03/M03 A3027 RMK A01 T00331028  RH  064%=      5-min Rain = 0
KAM1 151605Z 31006KT 03/M03 A3026 RMK A01 T00341029  RH  064%=      5-min Rain = 0
KAM1 151606Z 31005KT 03/M04 A3026 RMK A01 T00341035  RH  061%=      5-min Rain = 0
KAM1 151607Z 31006KT 03/M04 A3026 RMK A01 T00331035  RH  061%=      5-min Rain = 0
KAM1 151608Z 31006KT 03/M03 A3026 RMK A01 T00331032  RH  062%=      5-min Rain = 0
KAM1 151609Z 31005KT 03/M03 A3026 RMK A01 T00341032  RH  062%=      5-min Rain = 0
KAM1 151610Z 30006KT 03/M03 A3026 RMK A01 T00341033  RH  061%=      5-min Rain = 0
KAM1 151611Z 31005KT 03/M03 A3026 RMK A01 T00341034  RH  061%=      5-min Rain = 0
KAM1 151612Z 30005KT 03/M03 A3027 RMK A01 T00341034  RH  061%=      5-min Rain = 0
KAM1 151613Z 32004KT 04/M03 A3027 RMK A01 T00351031  RH  062%=      5-min Rain = 0
KAM1 151614Z 33005KT 04/M03 A3027 RMK A01 T00361026  RH  064%=      5-min Rain = 0
KAM1 151615Z 31004KT 04/M03 A3027 RMK A01 T00381028  RH  062%=      5-min Rain = 0
KAM1 151616Z 30004KT 04/M03 A3027 RMK A01 T00381026  RH  063%=      5-min Rain = 0
KAM1 151617Z 32004KT 04/M03 A3027 RMK A01 T00391026  RH  063%=      5-min Rain = 0
KAM1 151618Z 33005KT 04/M03 A3027 RMK A01 T00391026  RH  062%=      5-min Rain = 0
KAM1 151619Z 31004KT 04/M03 A3027 RMK A01 T00401029  RH  061%=      5-min Rain = 0
KAM1 151620Z 30004KT 04/M03 A3027 RMK A01 T00401033  RH  059%=      5-min Rain = 0
KAM1 151621Z 30005KT 04/M03 A3027 RMK A01 T00391032  RH  060%=      5-min Rain = 0
KAM1 151622Z 30004KT 04/M03 A3027 RMK A01 T00391030  RH  060%=      5-min Rain = 0
KAM1 151623Z 33004KT 04/M03 A3027 RMK A01 T00401026  RH  062%=      5-min Rain = 0
KAM1 151624Z 33003KT 04/M03 A3027 RMK A01 T00411031  RH  059%=      5-min Rain = 0
KAM1 151625Z 29003KT 04/M03 A3027 RMK A01 T00411025  RH  062%=      5-min Rain = 0
KAM1 151626Z 30003KT 04/M02 A3027 RMK A01 T00431024  RH  062%=      5-min Rain = 0
KAM1 151627Z 32003KT 04/M03 A3027 RMK A01 T00441025  RH  061%=      5-min Rain = 0
KAM1 151628Z 30005KT 04/M03 A3027 RMK A01 T00441026  RH  060%=      5-min Rain = 0
KAM1 151629Z 30004KT 04/M03 A3027 RMK A01 T00441032  RH  058%=      5-min Rain = 0
KAM1 151630Z 30003KT 04/M03 A3027 RMK A01 T00431031  RH  058%=      5-min Rain = 0
KAM1 151631Z 30003KT 04/M03 A3027 RMK A01 T00431030  RH  059%=      5-min Rain = 0
KAM1 151632Z 32004KT 04/M03 A3027 RMK A01 T00441025  RH  061%=      5-min Rain = 0
KAM1 151633Z 29005KT 05/M02 A3027 RMK A01 T00461021  RH  062%=      5-min Rain = 0
KAM1 151634Z 29004KT 05/M03 A3026 RMK A01 T00461028  RH  059%=      5-min Rain = 0
KAM1 151635Z 29004KT 05/M03 A3026 RMK A01 T00461029  RH  058%=      5-min Rain = 0
KAM1 151636Z 31004KT 05/M03 A3026 RMK A01 T00471025  RH  060%=      5-min Rain = 0
KAM1 151637Z 32004KT 05/M03 A3026 RMK A01 T00481025  RH  059%=      5-min Rain = 0
KAM1 151638Z 31005KT 05/M03 A3026 RMK A01 T00481029  RH  058%=      5-min Rain = 0
KAM1 151639Z 30004KT 05/M03 A3026 RMK A01 T00481030  RH  057%=      5-min Rain = 0
KAM1 151640Z 30003KT 05/M03 A3026 RMK A01 T00481030  RH  057%=      5-min Rain = 0
KAM1 151641Z 30003KT 05/M03 A3026 RMK A01 T00481027  RH  058%=      5-min Rain = 0
KAM1 151642Z 31002KT 05/M02 A3026 RMK A01 T00491023  RH  060%=      5-min Rain = 0
KAM1 151643Z 30003KT 05/M02 A3026 RMK A01 T00501023  RH  059%=      5-min Rain = 0
KAM1 151644Z 32004KT 05/M02 A3026 RMK A01 T00511021  RH  060%=      5-min Rain = 0
KAM1 151645Z 31002KT 05/M03 A3026 RMK A01 T00511028  RH  057%=      5-min Rain = 0
KAM1 151646Z 31003KT 05/M02 A3026 RMK A01 T00511024  RH  058%=      5-min Rain = 0
KAM1 151647Z 29004KT 05/M02 A3026 RMK A01 T00521019  RH  060%=      5-min Rain = 0
KAM1 151648Z 29003KT 05/M03 A3026 RMK A01 T00531028  RH  056%=      5-min Rain = 0
KAM1 151649Z 32003KT 05/M03 A3026 RMK A01 T00531032  RH  054%=      5-min Rain = 0
KAM1 151650Z 31003KT 05/M03 A3026 RMK A01 T00521031  RH  055%=      5-min Rain = 0
KAM1 151651Z 31004KT 05/M03 A3026 RMK A01 T00521028  RH  056%=      5-min Rain = 0
KAM1 151652Z 33004KT 05/M02 A3026 RMK A01 T00531023  RH  058%=      5-min Rain = 0
KAM1 151653Z 29005KT 05/M02 A3026 RMK A01 T00541024  RH  057%=      5-min Rain = 0
KAM1 151654Z 30004KT 05/M03 A3026 RMK A01 T00541028  RH  055%=      5-min Rain = 0
KAM1 151655Z 32005KT 05/M03 A3026 RMK A01 T00541032  RH  054%=      5-min Rain = 0
KAM1 151656Z 30005KT 05/M03 A3026 RMK A01 T00541028  RH  055%=      5-min Rain = 0
KAM1 151657Z 30004KT 06/M03 A3026 RMK A01 T00551028  RH  055%=      5-min Rain = 0
KAM1 151658Z 30004KT 06/M02 A3026 RMK A01 T00551024  RH  057%=      5-min Rain = 0
KAM1 151659Z 29005KT 06/M03 A3026 RMK A01 T00561026  RH  056%=      5-min Rain = 0
KAM1 151700Z 28005KT 06/M03 A3026 RMK A01 T00561026  RH  055%=      5-min Rain = 0
KAM1 151701Z 29005KT 06/M03 A3026 RMK A01 T00571028  RH  054%=      5-min Rain = 0
KAM1 151702Z 30005KT 06/M03 A3026 RMK A01 T00571026  RH  055%=      5-min Rain = 0
KAM1 151703Z 29005KT 06/M03 A3026 RMK A01 T00571028  RH  054%=      5-min Rain = 0
KAM1 151704Z 29004KT 06/M03 A3026 RMK A01 T00571026  RH  055%=      5-min Rain = 0
KAM1 151705Z 30003KT 06/M03 A3026 RMK A01 T00581027  RH  055%=      5-min Rain = 0
KAM1 151706Z 32004KT 06/M03 A3026 RMK A01 T00581025  RH  055%=      5-min Rain = 0
KAM1 151707Z 31005KT 06/M03 A3026 RMK A01 T00581029  RH  053%=      5-min Rain = 0
KAM1 151708Z 29004KT 06/M03 A3026 RMK A01 T00591025  RH  055%=      5-min Rain = 0
KAM1 151709Z 30004KT 06/M02 A3026 RMK A01 T00611020  RH  056%=      5-min Rain = 0
KAM1 151710Z 28004KT 06/M02 A3026 RMK A01 T00641016  RH  057%=      5-min Rain = 0
KAM1 151711Z 29005KT 07/M02 A3026 RMK A01 T00651020  RH  054%=      5-min Rain = 0
KAM1 151712Z 25006KT 07/M02 A3026 RMK A01 T00661017  RH  055%=      5-min Rain = 0
KAM1 151713Z 25005KT 07/M02 A3026 RMK A01 T00661021  RH  054%=      5-min Rain = 0
KAM1 151714Z 25006KT 07/M02 A3026 RMK A01 T00661021  RH  054%=      5-min Rain = 0
KAM1 151715Z 28005KT 07/M02 A3026 RMK A01 T00651022  RH  054%=      5-min Rain = 0
KAM1 151716Z 27006KT 06/M02 A3026 RMK A01 T00641020  RH  055%=      5-min Rain = 0
KAM1 151717Z 29003KT 06/M03 A3026 RMK A01 T00641026  RH  052%=      5-min Rain = 0
KAM1 151718Z 26005KT 06/M02 A3026 RMK A01 T00631024  RH  054%=      5-min Rain = 0
KAM1 151719Z 25007KT 06/M02 A3026 RMK A01 T00641020  RH  055%=      5-min Rain = 0
KAM1 151720Z 26006KT 07/M02 A3026 RMK A01 T00651023  RH  053%=      5-min Rain = 0
KAM1 151721Z 26006KT 07/M03 A3026 RMK A01 T00651026  RH  052%=      5-min Rain = 0
KAM1 151722Z 25005KT 07/M03 A3026 RMK A01 T00651025  RH  053%=      5-min Rain = 0
KAM1 151723Z 25006KT 07/M03 A3026 RMK A01 T00651026  RH  052%=      5-min Rain = 0
KAM1 151724Z 26007KT 07/M02 A3026 RMK A01 T00661021  RH  054%=      5-min Rain = 0
KAM1 151725Z 26005KT 07/M02 A3026 RMK A01 T00681024  RH  052%=      5-min Rain = 0
KAM1 151726Z 27005KT 07/M02 A3026 RMK A01 T00671024  RH  052%=      5-min Rain = 0
KAM1 151727Z 28007KT 07/M02 A3026 RMK A01 T00681023  RH  052%=      5-min Rain = 0
KAM1 151728Z 29006KT 07/M02 A3026 RMK A01 T00691023  RH  052%=      5-min Rain = 0
KAM1 151729Z 29006KT 07/M02 A3026 RMK A01 T00691024  RH  051%=      5-min Rain = 0
KAM1 151730Z 28006KT 07/M02 A3026 RMK A01 T00701021  RH  052%=      5-min Rain = 0
KAM1 151731Z 27006KT 07/M03 A3026 RMK A01 T00711028  RH  050%=      5-min Rain = 0
KAM1 151732Z 27005KT 07/M02 A3026 RMK A01 T00691024  RH  052%=      5-min Rain = 0
KAM1 151733Z 27006KT 07/M02 A3026 RMK A01 T00701020  RH  053%=      5-min Rain = 0
KAM1 151734Z 27004KT 07/M02 A3026 RMK A01 T00711021  RH  052%=      5-min Rain = 0
KAM1 151735Z 25005KT 07/M02 A3025 RMK A01 T00721020  RH  052%=      5-min Rain = 0
KAM1 151736Z 25006KT 07/M02 A3025 RMK A01 T00731017  RH  053%=      5-min Rain = 0
KAM1 151737Z 26003KT 07/M02 A3025 RMK A01 T00731015  RH  053%=      5-min Rain = 0
KAM1 151738Z 27006KT 08/M01 A3025 RMK A01 T00761011  RH  054%=      5-min Rain = 0
KAM1 151739Z 28006KT 08/M01 A3025 RMK A01 T00781011  RH  053%=      5-min Rain = 0
KAM1 151740Z 28005KT 08/M02 A3025 RMK A01 T00791018  RH  051%=      5-min Rain = 0
KAM1 151741Z 28005KT 08/M02 A3025 RMK A01 T00771020  RH  050%=      5-min Rain = 0
KAM1 151742Z 27006KT 08/M02 A3025 RMK A01 T00761017  RH  052%=      5-min Rain = 0
KAM1 151743Z 25002KT 08/M02 A3025 RMK A01 T00761022  RH  050%=      5-min Rain = 0
KAM1 151744Z 29006KT 08/M02 A3025 RMK A01 T00751022  RH  050%=      5-min Rain = 0
KAM1 151745Z 27006KT 08/M02 A3025 RMK A01 T00761024  RH  049%=      5-min Rain = 0
KAM1 151746Z 27005KT 08/M02 A3025 RMK A01 T00761023  RH  049%=      5-min Rain = 0
KAM1 151747Z 26004KT 08/M03 A3025 RMK A01 T00751031  RH  047%=      5-min Rain = 0
KAM1 151748Z 27006KT 08/M03 A3025 RMK A01 T00751026  RH  049%=      5-min Rain = 0
KAM1 151749Z 26006KT 08/M02 A3025 RMK A01 T00761022  RH  050%=      5-min Rain = 0
KAM1 151750Z 27005KT 08/M02 A3025 RMK A01 T00791016  RH  051%=      5-min Rain = 0
KAM1 151751Z 26005KT 08/M02 A3025 RMK A01 T00811018  RH  050%=      5-min Rain = 0
KAM1 151752Z 29006KT 08/M02 A3025 RMK A01 T00811015  RH  051%=      5-min Rain = 0
KAM1 151753Z 27006KT 08/M02 A3025 RMK A01 T00831017  RH  050%=      5-min Rain = 0
KAM1 151754Z 27006KT 08/M02 A3025 RMK A01 T00831021  RH  048%=      5-min Rain = 0
KAM1 151755Z 28006KT 08/M03 A3025 RMK A01 T00801028  RH  046%=      5-min Rain = 0
KAM1 151756Z 27007KT 08/M02 A3025 RMK A01 T00791021  RH  049%=      5-min Rain = 0
KAM1 151757Z 29008KT 08/M02 A3025 RMK A01 T00811017  RH  050%=      5-min Rain = 0
KAM1 151758Z 29006KT 08/M02 A3025 RMK A01 T00821024  RH  047%=      5-min Rain = 0
KAM1 151759Z 29005KT 08/M03 A3025 RMK A01 T00811028  RH  046%=      5-min Rain = 0
KAM1 151800Z 29007KT 08/M02 A3025 RMK A01 T00811022  RH  048%=      5-min Rain = 0
KAM1 151801Z 30006KT 08/M02 A3025 RMK A01 T00831016  RH  049%=      5-min Rain = 0
KAM1 151802Z 29009KT 08/M02 A3025 RMK A01 T00841020  RH  048%=      5-min Rain = 0
KAM1 151803Z 28007KT 08/M02 A3024 RMK A01 T00841020  RH  048%=      5-min Rain = 0
KAM1 151804Z 29005KT 08/M02 A3024 RMK A01 T00821023  RH  048%=      5-min Rain = 0
KAM1 151805Z 27008KT 08/M02 A3024 RMK A01 T00811020  RH  049%=      5-min Rain = 0
KAM1 151806Z 24006KT 08/M02 A3024 RMK A01 T00811023  RH  048%=      5-min Rain = 0
KAM1 151807Z 27008KT 08/M02 A3024 RMK A01 T00821019  RH  049%=      5-min Rain = 0
KAM1 151808Z 28008KT 08/M02 A3024 RMK A01 T00821021  RH  048%=      5-min Rain = 0
KAM1 151809Z 30008KT 08/M02 A3024 RMK A01 T00821021  RH  048%=      5-min Rain = 0
KAM1 151810Z 29006KT 08/M03 A3024 RMK A01 T00821029  RH  046%=      5-min Rain = 0
KAM1 151811Z 28005KT 08/M03 A3024 RMK A01 T00811027  RH  047%=      5-min Rain = 0
KAM1 151812Z 29004KT 08/M03 A3024 RMK A01 T00821026  RH  046%=      5-min Rain = 0
KAM1 151813Z 28004KT 08/M03 A3024 RMK A01 T00821028  RH  046%=      5-min Rain = 0
KAM1 151814Z 31008KT 08/M02 A3024 RMK A01 T00821024  RH  047%=      5-min Rain = 0
KAM1 151815Z 31006KT 08/M02 A3024 RMK A01 T00841022  RH  047%=      5-min Rain = 0
KAM1 151816Z 32006KT 09/M02 A3024 RMK A01 T00861022  RH  047%=      5-min Rain = 0
KAM1 151817Z 30005KT 09/M03 A3024 RMK A01 T00861028  RH  045%=      5-min Rain = 0
KAM1 151818Z 28007KT 09/M02 A3024 RMK A01 T00861023  RH  046%=      5-min Rain = 0
KAM1 151819Z 27005KT 09/M02 A3024 RMK A01 T00871023  RH  046%=      5-min Rain = 0
KAM1 151820Z 27004KT 09/M02 A3024 RMK A01 T00871023  RH  046%=      5-min Rain = 0
KAM1 151821Z 27007KT 09/M01 A3024 RMK A01 T00891014  RH  048%=      5-min Rain = 0
KAM1 151822Z 29007KT 09/M02 A3024 RMK A01 T00911016  RH  047%=      5-min Rain = 0
KAM1 151823Z 30006KT 09/M02 A3024 RMK A01 T00921024  RH  044%=      5-min Rain = 0
KAM1 151824Z 31006KT 09/M03 A3024 RMK A01 T00911026  RH  044%=      5-min Rain = 0
KAM1 151825Z 31006KT 09/M02 A3024 RMK A01 T00901024  RH  045%=      5-min Rain = 0
KAM1 151826Z 31007KT 09/M02 A3024 RMK A01 T00901023  RH  045%=      5-min Rain = 0
KAM1 151827Z 29006KT 09/M02 A3023 RMK A01 T00911022  RH  045%=      5-min Rain = 0
KAM1 151828Z 32006KT 09/M02 A3023 RMK A01 T00931017  RH  046%=      5-min Rain = 0
KAM1 151829Z 31007KT 09/M02 A3023 RMK A01 T00941019  RH  045%=      5-min Rain = 0
KAM1 151830Z 31008KT 09/M02 A3023 RMK A01 T00931022  RH  044%=      5-min Rain = 0
KAM1 151831Z 31009KT 09/M03 A3023 RMK A01 T00931026  RH  043%=      5-min Rain = 0
KAM1 151832Z 31008KT 09/M03 A3023 RMK A01 T00901030  RH  043%=      5-min Rain = 0
KAM1 151833Z 32005KT 09/M03 A3023 RMK A01 T00891031  RH  043%=      5-min Rain = 0
KAM1 151834Z 32007KT 09/M03 A3023 RMK A01 T00881029  RH  044%=      5-min Rain = 0
KAM1 151835Z 30009KT 09/M02 A3023 RMK A01 T00911020  RH  046%=      5-min Rain = 0
KAM1 151836Z 31008KT 09/M02 A3023 RMK A01 T00931022  RH  044%=      5-min Rain = 0
KAM1 151837Z 30006KT 09/M02 A3023 RMK A01 T00931023  RH  044%=      5-min Rain = 0
KAM1 151838Z 30007KT 09/M03 A3023 RMK A01 T00921026  RH  043%=      5-min Rain = 0
KAM1 151839Z 29007KT 09/M03 A3022 RMK A01 T00911025  RH  044%=      5-min Rain = 0
KAM1 151840Z 29007KT 09/M02 A3022 RMK A01 T00931023  RH  044%=      5-min Rain = 0
KAM1 151841Z 31009KT 09/M02 A3022 RMK A01 T00941024  RH  043%=      5-min Rain = 0
KAM1 151842Z 31007KT 09/M03 A3022 RMK A01 T00941026  RH  043%=      5-min Rain = 0
KAM1 151843Z 28007KT 09/M03 A3022 RMK A01 T00941026  RH  043%=      5-min Rain = 0
KAM1 151844Z 30006KT 09/M03 A3022 RMK A01 T00941032  RH  041%=      5-min Rain = 0
KAM1 151845Z 30007KT 09/M03 A3022 RMK A01 T00941030  RH  042%=      5-min Rain = 0
KAM1 151846Z 32007KT 09/M03 A3022 RMK A01 T00941029  RH  042%=      5-min Rain = 0
KAM1 151847Z 32006KT 10/M03 A3022 RMK A01 T00951025  RH  043%=      5-min Rain = 0
KAM1 151848Z 32007KT 10/M03 A3022 RMK A01 T00971025  RH  042%=      5-min Rain = 0
KAM1 151849Z 32009KT 10/M03 A3022 RMK A01 T00991028  RH  041%=      5-min Rain = 0
KAM1 151850Z 30006KT 10/M04 A3022 RMK A01 T00971035  RH  039%=      5-min Rain = 0
KAM1 151851Z 32006KT 10/M03 A3022 RMK A01 T00951033  RH  040%=      5-min Rain = 0
KAM1 151852Z 31008G13KT 09/M04 A3022 RMK A01 T00931035  RH  040%=      5-min Rain = 0
KAM1 151853Z 30010KT 09/M03 A3022 RMK A01 T00941025  RH  043%=      5-min Rain = 0
KAM1 151854Z 30007KT 10/M03 A3022 RMK A01 T00951029  RH  041%=      5-min Rain = 0
KAM1 151855Z 30006KT 10/M03 A3022 RMK A01 T00961028  RH  042%=      5-min Rain = 0
KAM1 151856Z 26006KT 10/M02 A3022 RMK A01 T00971024  RH  043%=      5-min Rain = 0
KAM1 151857Z 26006KT 10/M03 A3022 RMK A01 T00981026  RH  042%=      5-min Rain = 0
KAM1 151858Z 26008KT 10/M03 A3022 RMK A01 T00981026  RH  042%=      5-min Rain = 0
KAM1 151859Z 26006KT 10/M03 A3022 RMK A01 T00971027  RH  042%=      5-min Rain = 0
KAM1 151900Z 29005KT 10/M03 A3022 RMK A01 T00961026  RH  042%=      5-min Rain = 0
KAM1 151901Z 31008KT 10/M03 A3022 RMK A01 T00961032  RH  040%=      5-min Rain = 0
KAM1 151902Z 29008KT 10/M03 A3022 RMK A01 T00961034  RH  040%=      5-min Rain = 0
KAM1 151903Z 28007KT 10/M03 A3022 RMK A01 T00981030  RH  040%=      5-min Rain = 0
KAM1 151904Z 31008KT 10/M03 A3022 RMK A01 T00981031  RH  040%=      5-min Rain = 0
KAM1 151905Z 32007KT 10/M04 A3022 RMK A01 T00981035  RH  039%=      5-min Rain = 0
KAM1 151906Z 32005KT 10/M04 A3021 RMK A01 T00971042  RH  037%=      5-min Rain = 0
KAM1 151907Z 29004KT 10/M04 A3021 RMK A01 T00951042  RH  038%=      5-min Rain = 0
KAM1 151908Z 26006KT 10/M03 A3021 RMK A01 T00961033  RH  040%=      5-min Rain = 0
KAM1 151909Z 27009KT 10/M03 A3021 RMK A01 T00991029  RH  041%=      5-min Rain = 0
KAM1 151910Z 28008KT 10/M03 A3021 RMK A01 T01011029  RH  040%=      5-min Rain = 0
KAM1 151911Z 28007KT 10/M03 A3021 RMK A01 T01001032  RH  039%=      5-min Rain = 0
KAM1 151912Z 26005KT 10/M03 A3021 RMK A01 T00991033  RH  040%=      5-min Rain = 0
KAM1 151913Z 23003KT 10/M03 A3021 RMK A01 T00981034  RH  039%=      5-min Rain = 0
KAM1 151914Z 26006KT 10/M03 A3021 RMK A01 T00981033  RH  040%=      5-min Rain = 0
KAM1 151915Z 29008KT 10/M02 A3021 RMK A01 T01011024  RH  041%=      5-min Rain = 0
KAM1 151916Z 29006KT 10/M02 A3021 RMK A01 T01031024  RH  041%=      5-min Rain = 0
KAM1 151917Z 28009KT 11/M02 A3021 RMK A01 T01051019  RH  042%=      5-min Rain = 0
KAM1 151918Z 28008KT 11/M02 A3021 RMK A01 T01061023  RH  040%=      5-min Rain = 0
KAM1 151919Z 29004KT 11/M03 A3021 RMK A01 T01051028  RH  039%=      5-min Rain = 0
KAM1 151920Z 28007KT 10/M03 A3021 RMK A01 T01021029  RH  040%=      5-min Rain = 0
KAM1 151921Z 25008KT 10/M03 A3021 RMK A01 T01031027  RH  040%=      5-min Rain = 0
KAM1 151922Z 29007KT 10/M03 A3021 RMK A01 T01031029  RH  039%=      5-min Rain = 0
KAM1 151923Z 32010KT 11/M02 A3021 RMK A01 T01051022  RH  041%=      5-min Rain = 0
KAM1 151924Z 33008KT 11/M03 A302 RMK A01 T01051029  RH  039%=      5-min Rain = 0
KAM1 151925Z 33005KT 10/M03 A302 RMK A01 T01041028  RH  040%=      5-min Rain = 0
KAM1 151926Z 31004KT 10/M03 A302 RMK A01 T01041026  RH  040%=      5-min Rain = 0
KAM1 151927Z 27004KT 11/M02 A302 RMK A01 T01051023  RH  041%=      5-min Rain = 0
KAM1 151928Z 23005KT 11/M03 A302 RMK A01 T01061025  RH  040%=      5-min Rain = 0
KAM1 151929Z 25007KT 10/M03 A302 RMK A01 T01041028  RH  039%=      5-min Rain = 0
KAM1 151930Z 25007KT 10/M03 A302 RMK A01 T01031029  RH  039%=      5-min Rain = 0
KAM1 151931Z 25008KT 10/M03 A302 RMK A01 T01031025  RH  041%=      5-min Rain = 0
KAM1 151932Z 24007KT 10/M03 A302 RMK A01 T01031026  RH  040%=      5-min Rain = 0
KAM1 151933Z 23009KT 10/M03 A302 RMK A01 T01031025  RH  041%=      5-min Rain = 0
KAM1 151934Z 29006G11KT 10/M02 A302 RMK A01 T01041021  RH  042%=      5-min Rain = 0
KAM1 151935Z 30005KT 11/M02 A302 RMK A01 T01081016  RH  042%=      5-min Rain = 0
KAM1 151936Z 29007KT 11/M01 A302 RMK A01 T01111014  RH  042%=      5-min Rain = 0
KAM1 151937Z 30008KT 11/M01 A302 RMK A01 T01121013  RH  042%=      5-min Rain = 0
KAM1 151938Z 31007KT 11/M02 A302 RMK A01 T01121017  RH  040%=      5-min Rain = 0
KAM1 151939Z 32006KT 11/M02 A302 RMK A01 T01091022  RH  040%=      5-min Rain = 0
KAM1 151940Z 25006KT 11/M02 A302 RMK A01 T01071020  RH  041%=      5-min Rain = 0
KAM1 151941Z 26009KT 11/M02 A302 RMK A01 T01071022  RH  040%=      5-min Rain = 0
KAM1 151942Z 25006KT 11/M03 A302 RMK A01 T01061025  RH  040%=      5-min Rain = 0
KAM1 151943Z 24004KT 11/M02 A3019 RMK A01 T01051024  RH  040%=      5-min Rain = 0
KAM1 151944Z 25003G9KT 11/M02 A3019 RMK A01 T01051021  RH  041%=      5-min Rain = 0
KAM1 151945Z 25007KT 11/M02 A3019 RMK A01 T01061021  RH  041%=      5-min Rain = 0
KAM1 151946Z 24006KT 11/M02 A3019 RMK A01 T01071021  RH  041%=      5-min Rain = 0
KAM1 151947Z 25006KT 11/M03 A3019 RMK A01 T01061025  RH  040%=      5-min Rain = 0
KAM1 151948Z 22005KT 11/M02 A3019 RMK A01 T01051023  RH  041%=      5-min Rain = 0
KAM1 151949Z 27005KT 11/M02 A3019 RMK A01 T01051021  RH  041%=      5-min Rain = 0
KAM1 151950Z 29008KT 11/M02 A3019 RMK A01 T01071019  RH  041%=      5-min Rain = 0
KAM1 151951Z 29010KT 11/M02 A3019 RMK A01 T01081021  RH  040%=      5-min Rain = 0
KAM1 151952Z 27008KT 11/M03 A3019 RMK A01 T01061025  RH  040%=      5-min Rain = 0
KAM1 151953Z 26006KT 11/M02 A3019 RMK A01 T01051023  RH  041%=      5-min Rain = 0
KAM1 151954Z 26009KT 11/M02 A3019 RMK A01 T01061022  RH  041%=      5-min Rain = 0
KAM1 151955Z 25008KT 11/M03 A3019 RMK A01 T01061025  RH  040%=      5-min Rain = 0
KAM1 151956Z 26004KT 10/M03 A3019 RMK A01 T01041026  RH  040%=      5-min Rain = 0
KAM1 151957Z 28004KT 11/M02 A3019 RMK A01 T01051024  RH  041%=      5-min Rain = 0
KAM1 151958Z 34000KT 11/M03 A3019 RMK A01 T01051026  RH  040%=      5-min Rain = 0
KAM1 151959Z 26003KT 11/M03 A3019 RMK A01 T01051025  RH  040%=      5-min Rain = 0
KAM1 152000Z 28005KT 11/M02 A3019 RMK A01 T01061023  RH  040%=      5-min Rain = 0
KAM1 152001Z 32006KT 11/M02 A3019 RMK A01 T01071023  RH  040%=      5-min Rain = 0
KAM1 152002Z 33004KT 11/M02 A3019 RMK A01 T01081024  RH  040%=      5-min Rain = 0
KAM1 152003Z 35003KT 11/M03 A3019 RMK A01 T01071029  RH  039%=      5-min Rain = 0
KAM1 152004Z 33001KT 11/M03 A3019 RMK A01 T01071027  RH  039%=      5-min Rain = 0
KAM1 152005Z 20002KT 11/M02 A3019 RMK A01 T01081023  RH  040%=      5-min Rain = 0
KAM1 152006Z 17004KT 11/M02 A3018 RMK A01 T01111023  RH  039%=      5-min Rain = 0
KAM1 152007Z 16004KT 11/M02 A3018 RMK A01 T01111023  RH  039%=      5-min Rain = 0
KAM1 152008Z 23004KT 11/M02 A3018 RMK A01 T01121023  RH  039%=      5-min Rain = 0
KAM1 152009Z 28010KT 11/M02 A3018 RMK A01 T01121023  RH  039%=      5-min Rain = 0
KAM1 152010Z 28009KT 11/M02 A3018 RMK A01 T01141023  RH  038%=      5-min Rain = 0
KAM1 152011Z 29007KT 11/M03 A3018 RMK A01 T01131029  RH  037%=      5-min Rain = 0
KAM1 152012Z 32006KT 11/M03 A3018 RMK A01 T01121028  RH  038%=      5-min Rain = 0
KAM1 152013Z 32004KT 11/M03 A3018 RMK A01 T01111034  RH  036%=      5-min Rain = 0
KAM1 152014Z 32002KT 11/M04 A3018 RMK A01 T01081037  RH  036%=      5-min Rain = 0
KAM1 152015Z 33004KT 11/M03 A3018 RMK A01 T01071033  RH  037%=      5-min Rain = 0
KAM1 152016Z 32005KT 11/M03 A3018 RMK A01 T01081030  RH  038%=      5-min Rain = 0
KAM1 152017Z 33004KT 11/M03 A3018 RMK A01 T01081029  RH  038%=      5-min Rain = 0
KAM1 152018Z 31002KT 11/M03 A3018 RMK A01 T01081031  RH  038%=      5-min Rain = 0
KAM1 152019Z 29002KT 11/M03 A3018 RMK A01 T01081031  RH  038%=      5-min Rain = 0
KAM1 152020Z 30006KT 11/M03 A3018 RMK A01 T01091025  RH  039%=      5-min Rain = 0
KAM1 152021Z 29009KT 11/M02 A3018 RMK A01 T01121022  RH  039%=      5-min Rain = 0
KAM1 152022Z 30007KT 11/M03 A3018 RMK A01 T01131027  RH  038%=      5-min Rain = 0
KAM1 152023Z 32007KT 11/M03 A3018 RMK A01 T01111026  RH  038%=      5-min Rain = 0
KAM1 152024Z 31006KT 11/M03 A3017 RMK A01 T01111025  RH  039%=      5-min Rain = 0
KAM1 152025Z 31005KT 11/M03 A3017 RMK A01 T01121027  RH  038%=      5-min Rain = 0
KAM1 152026Z 34004KT 11/M03 A3017 RMK A01 T01111029  RH  037%=      5-min Rain = 0
KAM1 152027Z 33004KT 11/M03 A3017 RMK A01 T01101030  RH  037%=      5-min Rain = 0
KAM1 152028Z 33004KT 11/M03 A3017 RMK A01 T01091030  RH  038%=      5-min Rain = 0
KAM1 152029Z 35003KT 11/M03 A3017 RMK A01 T01091031  RH  037%=      5-min Rain = 0
KAM1 152030Z 33004KT 11/M03 A3017 RMK A01 T01091027  RH  038%=      5-min Rain = 0
KAM1 152031Z 27003KT 11/M03 A3017 RMK A01 T01091029  RH  038%=      5-min Rain = 0
KAM1 152032Z 26004KT 11/M03 A3017 RMK A01 T01101027  RH  038%=      5-min Rain = 0
KAM1 152033Z 22001KT 11/M03 A3017 RMK A01 T01101028  RH  038%=      5-min Rain = 0
KAM1 152034Z 24002KT 11/M03 A3017 RMK A01 T01111029  RH  037%=      5-min Rain = 0
KAM1 152035Z 23006KT 11/M03 A3017 RMK A01 T01121026  RH  038%=      5-min Rain = 0
KAM1 152036Z 23005KT 11/M02 A3017 RMK A01 T01141024  RH  038%=      5-min Rain = 0
KAM1 152037Z 21005KT 12/M03 A3017 RMK A01 T01161025  RH  037%=      5-min Rain = 0
KAM1 152038Z 22002KT 12/M03 A3017 RMK A01 T01151027  RH  037%=      5-min Rain = 0
KAM1 152039Z 27005KT 11/M02 A3017 RMK A01 T01141024  RH  038%=      5-min Rain = 0
KAM1 152040Z 27007KT 11/M02 A3017 RMK A01 T01141023  RH  038%=      5-min Rain = 0
KAM1 152041Z 25006KT 12/M02 A3017 RMK A01 T01161024  RH  038%=      5-min Rain = 0
KAM1 152042Z 25007KT 12/M03 A3017 RMK A01 T01161026  RH  037%=      5-min Rain = 0
KAM1 152043Z 26007KT 12/M03 A3017 RMK A01 T01161026  RH  037%=      5-min Rain = 0
KAM1 152044Z 25007KT 12/M03 A3017 RMK A01 T01161025  RH  037%=      5-min Rain = 0
KAM1 152045Z 27008KT 12/M03 A3017 RMK A01 T01181025  RH  037%=      5-min Rain = 0
KAM1 152046Z 27007KT 12/M03 A3017 RMK A01 T01191025  RH  037%=      5-min Rain = 0
KAM1 152047Z 25006KT 12/M03 A3017 RMK A01 T01161028  RH  036%=      5-min Rain = 0
KAM1 152048Z 27006KT 12/M02 A3017 RMK A01 T01161024  RH  038%=      5-min Rain = 0
KAM1 152049Z 28005KT 12/M03 A3017 RMK A01 T01171025  RH  037%=      5-min Rain = 0
KAM1 152050Z 26003KT 12/M03 A3017 RMK A01 T01151029  RH  037%=      5-min Rain = 0
KAM1 152051Z 26003KT 11/M03 A3016 RMK A01 T01141029  RH  037%=      5-min Rain = 0
KAM1 152052Z 02001KT 11/M03 A3016 RMK A01 T01131028  RH  037%=      5-min Rain = 0
KAM1 152053Z 31001KT 11/M02 A3016 RMK A01 T01141022  RH  039%=      5-min Rain = 0
KAM1 152054Z 28002KT 12/M02 A3016 RMK A01 T01161024  RH  038%=      5-min Rain = 0
KAM1 152055Z 27006KT 12/M02 A3016 RMK A01 T01171023  RH  038%=      5-min Rain = 0
KAM1 152056Z 29007KT 12/M03 A3016 RMK A01 T01181025  RH  037%=      5-min Rain = 0
KAM1 152057Z 27007KT 12/M02 A3016 RMK A01 T01181024  RH  037%=      5-min Rain = 0
KAM1 152058Z 25009KT 12/M02 A3016 RMK A01 T01201022  RH  037%=      5-min Rain = 0
KAM1 152059Z 24008KT 12/M02 A3016 RMK A01 T01211024  RH  036%=      5-min Rain = 0
KAM1 152100Z 25007KT 12/M03 A3016 RMK A01 T01211027  RH  036%=      5-min Rain = 0
KAM1 152101Z 26004KT 12/M03 A3016 RMK A01 T01191029  RH  035%=      5-min Rain = 0
KAM1 152102Z 27006KT 12/M02 A3016 RMK A01 T01191024  RH  037%=      5-min Rain = 0
KAM1 152103Z 26004KT 12/M03 A3016 RMK A01 T01191028  RH  036%=      5-min Rain = 0
KAM1 152104Z 25002KT 12/M03 A3016 RMK A01 T01181028  RH  036%=      5-min Rain = 0
KAM1 152105Z 26002KT 12/M03 A3016 RMK A01 T01181028  RH  036%=      5-min Rain = 0
KAM1 152106Z 29002KT 12/M03 A3016 RMK A01 T01181027  RH  036%=      5-min Rain = 0
KAM1 152107Z 32003KT 12/M03 A3016 RMK A01 T01191026  RH  036%=      5-min Rain = 0
KAM1 152108Z 31004KT 12/M03 A3016 RMK A01 T01181028  RH  036%=      5-min Rain = 0
KAM1 152109Z 28004KT 12/M03 A3016 RMK A01 T01161029  RH  036%=      5-min Rain = 0
KAM1 152110Z 24003KT 12/M03 A3016 RMK A01 T01161028  RH  037%=      5-min Rain = 0
KAM1 152111Z 31004G10KT 12/M03 A3016 RMK A01 T01151028  RH  037%=      5-min Rain = 0
KAM1 152112Z 30008KT 12/M02 A3016 RMK A01 T01181021  RH  038%=      5-min Rain = 0
KAM1 152113Z 30008KT 12/M02 A3016 RMK A01 T01221024  RH  036%=      5-min Rain = 0
KAM1 152114Z 32006KT 12/M03 A3016 RMK A01 T01211026  RH  036%=      5-min Rain = 0
KAM1 152115Z 34006KT 12/M03 A3016 RMK A01 T01201028  RH  035%=      5-min Rain = 0
KAM1 152116Z 32007KT 12/M03 A3016 RMK A01 T01181030  RH  035%=      5-min Rain = 0
KAM1 152117Z 29004KT 12/M03 A3016 RMK A01 T01171029  RH  036%=      5-min Rain = 0
KAM1 152118Z 28004KT 12/M03 A3016 RMK A01 T01171030  RH  036%=      5-min Rain = 0
KAM1 152119Z 26006KT 12/M03 A3016 RMK A01 T01181028  RH  036%=      5-min Rain = 0
KAM1 152120Z 27004KT 12/M03 A3016 RMK A01 T01201027  RH  036%=      5-min Rain = 0
KAM1 152121Z 27001KT 12/M03 A3016 RMK A01 T01201029  RH  035%=      5-min Rain = 0
KAM1 152122Z 14000KT 12/M03 A3015 RMK A01 T01201028  RH  035%=      5-min Rain = 0
KAM1 152123Z 12002KT 12/M03 A3015 RMK A01 T01221028  RH  035%=      5-min Rain = 0
KAM1 152124Z 12002KT 12/M03 A3015 RMK A01 T01211030  RH  035%=      5-min Rain = 0
KAM1 152125Z 26003KT 12/M03 A3015 RMK A01 T01201032  RH  035%=      5-min Rain = 0
KAM1 152126Z 25004KT 12/M03 A3015 RMK A01 T01201031  RH  035%=      5-min Rain = 0
KAM1 152127Z 27005KT 12/M03 A3015 RMK A01 T01201030  RH  035%=      5-min Rain = 0
KAM1 152128Z 28008KT 12/M03 A3015 RMK A01 T01221027  RH  035%=      5-min Rain = 0
KAM1 152129Z 30005KT 12/M03 A3015 RMK A01 T01231029  RH  035%=      5-min Rain = 0
KAM1 152130Z 31004KT 12/M03 A3015 RMK A01 T01231027  RH  035%=      5-min Rain = 0
KAM1 152131Z 32002KT 12/M03 A3015 RMK A01 T01231029  RH  034%=      5-min Rain = 0
KAM1 152132Z 31001KT 12/M03 A3015 RMK A01 T01241029  RH  034%=      5-min Rain = 0
KAM1 152133Z 28002KT 12/M03 A3015 RMK A01 T01241029  RH  034%=      5-min Rain = 0
KAM1 152134Z 26005KT 13/M03 A3015 RMK A01 T01261029  RH  034%=      5-min Rain = 0
KAM1 152135Z 27006KT 13/M03 A3015 RMK A01 T01261032  RH  033%=      5-min Rain = 0
KAM1 152136Z 27002KT 13/M03 A3015 RMK A01 T01251029  RH  034%=      5-min Rain = 0
KAM1 152137Z 21000KT 13/M03 A3015 RMK A01 T01251030  RH  034%=      5-min Rain = 0
KAM1 152138Z 26005KT 13/M03 A3015 RMK A01 T01271028  RH  034%=      5-min Rain = 0
KAM1 152139Z 25006KT 13/M03 A3015 RMK A01 T01281032  RH  033%=      5-min Rain = 0
KAM1 152140Z 25003KT 13/M03 A3015 RMK A01 T01271031  RH  033%=      5-min Rain = 0
KAM1 152141Z 28004KT 13/M03 A3015 RMK A01 T01271028  RH  034%=      5-min Rain = 0
KAM1 152142Z 28003KT 13/M03 A3015 RMK A01 T01271027  RH  034%=      5-min Rain = 0
KAM1 152143Z 29005KT 13/M03 A3014 RMK A01 T01281028  RH  034%=      5-min Rain = 0
KAM1 152144Z 31006KT 13/M03 A3015 RMK A01 T01301029  RH  033%=      5-min Rain = 0
KAM1 152145Z 32007KT 13/M03 A3014 RMK A01 T01281034  RH  032%=      5-min Rain = 0
KAM1 152146Z 31006KT 13/M03 A3014 RMK A01 T01281031  RH  033%=      5-min Rain = 0
KAM1 152147Z 30007KT 13/M03 A3014 RMK A01 T01281029  RH  033%=      5-min Rain = 0
KAM1 152148Z 29008KT 13/M03 A3014 RMK A01 T01291028  RH  033%=      5-min Rain = 0
KAM1 152149Z 26008KT 13/M03 A3014 RMK A01 T01291030  RH  033%=      5-min Rain = 0
KAM1 152150Z 25006KT 13/M03 A3014 RMK A01 T01281030  RH  033%=      5-min Rain = 0
KAM1 152151Z 24005KT 13/M03 A3014 RMK A01 T01281031  RH  033%=      5-min Rain = 0
KAM1 152152Z 23006KT 13/M03 A3014 RMK A01 T01271033  RH  033%=      5-min Rain = 0
KAM1 152153Z 23005KT 13/M03 A3014 RMK A01 T01261034  RH  033%=      5-min Rain = 0
KAM1 152154Z 22003KT 13/M03 A3014 RMK A01 T01261032  RH  033%=      5-min Rain = 0
KAM1 152155Z 25003KT 13/M03 A3014 RMK A01 T01271029  RH  034%=      5-min Rain = 0
KAM1 152156Z 25001KT 13/M03 A3014 RMK A01 T01281032  RH  033%=      5-min Rain = 0
KAM1 152157Z 29003G10KT 13/M03 A3014 RMK A01 T01281032  RH  033%=      5-min Rain = 0
KAM1 152158Z 26007KT 13/M03 A3014 RMK A01 T01291028  RH  034%=      5-min Rain = 0
KAM1 152159Z 24006KT 13/M03 A3014 RMK A01 T01301029  RH  033%=      5-min Rain = 0
KAM1 152200Z 23006KT 13/M03 A3014 RMK A01 T01291030  RH  033%=      5-min Rain = 0
KAM1 152201Z 23007KT 13/M03 A3014 RMK A01 T01281029  RH  033%=      5-min Rain = 0
KAM1 152202Z 23008KT 13/M03 A3014 RMK A01 T01281031  RH  033%=      5-min Rain = 0
KAM1 152203Z 24006KT 13/M03 A3014 RMK A01 T01271033  RH  033%=      5-min Rain = 0
KAM1 152204Z 25007KT 13/M03 A3014 RMK A01 T01261029  RH  034%=      5-min Rain = 0
KAM1 152205Z 25006KT 13/M03 A3014 RMK A01 T01291028  RH  034%=      5-min Rain = 0
KAM1 152206Z 23006KT 13/M03 A3014 RMK A01 T01311031  RH  032%=      5-min Rain = 0
KAM1 152207Z 25006KT 13/M03 A3014 RMK A01 T01311031  RH  032%=      5-min Rain = 0
KAM1 152208Z 24004KT 13/M04 A3013 RMK A01 T01301037  RH  031%=      5-min Rain = 0
KAM1 152209Z 23005KT 13/M04 A3013 RMK A01 T01281038  RH  031%=      5-min Rain = 0
KAM1 152210Z 25004KT 13/M04 A3013 RMK A01 T01271038  RH  031%=      5-min Rain = 0
KAM1 152211Z 25006KT 13/M04 A3013 RMK A01 T01281036  RH  032%=      5-min Rain = 0
KAM1 152212Z 26007KT 13/M03 A3013 RMK A01 T01291034  RH  032%=      5-min Rain = 0
KAM1 152213Z 24006KT 13/M03 A3013 RMK A01 T01301034  RH  032%=      5-min Rain = 0
KAM1 152214Z 25005KT 13/M04 A3013 RMK A01 T01301036  RH  031%=      5-min Rain = 0
KAM1 152215Z 26004KT 13/M04 A3013 RMK A01 T01281038  RH  031%=      5-min Rain = 0
KAM1 152216Z 26003KT 13/M03 A3013 RMK A01 T01261033  RH  033%=      5-min Rain = 0
KAM1 152217Z 24002KT 13/M04 A3013 RMK A01 T01271035  RH  032%=      5-min Rain = 0
KAM1 152218Z 26006KT 13/M04 A3013 RMK A01 T01281037  RH  032%=      5-min Rain = 0
KAM1 152219Z 26004KT 13/M04 A3013 RMK A01 T01271038  RH  031%=      5-min Rain = 0
KAM1 152220Z 25002KT 13/M04 A3013 RMK A01 T01261039  RH  031%=      5-min Rain = 0
KAM1 152221Z 29004KT 13/M04 A3013 RMK A01 T01261036  RH  032%=      5-min Rain = 0
KAM1 152222Z 25002KT 13/M04 A3013 RMK A01 T01261036  RH  032%=      5-min Rain = 0
KAM1 152223Z 25005KT 13/M04 A3013 RMK A01 T01271035  RH  032%=      5-min Rain = 0
KAM1 152224Z 25007KT 13/M03 A3013 RMK A01 T01291032  RH  032%=      5-min Rain = 0
KAM1 152225Z 26007KT 13/M03 A3012 RMK A01 T01341028  RH  032%=      5-min Rain = 0
KAM1 152226Z 25008KT 14/M04 A3012 RMK A01 T01351036  RH  030%=      5-min Rain = 0
KAM1 152227Z 27008KT 13/M04 A3012 RMK A01 T01331041  RH  030%=      5-min Rain = 0
KAM1 152228Z 28006KT 13/M04 A3012 RMK A01 T01301041  RH  030%=      5-min Rain = 0
KAM1 152229Z 25007KT 13/M04 A3012 RMK A01 T01301038  RH  031%=      5-min Rain = 0
KAM1 152230Z 25009KT 13/M04 A3012 RMK A01 T01321039  RH  030%=      5-min Rain = 0
KAM1 152231Z 25008KT 13/M04 A3012 RMK A01 T01311040  RH  030%=      5-min Rain = 0
KAM1 152232Z 25008KT 13/M04 A3012 RMK A01 T01311039  RH  030%=      5-min Rain = 0
KAM1 152233Z 25007KT 13/M04 A3012 RMK A01 T01311039  RH  030%=      5-min Rain = 0
KAM1 152234Z 27007KT 13/M04 A3012 RMK A01 T01321037  RH  031%=      5-min Rain = 0
KAM1 152235Z 24006KT 13/M04 A3012 RMK A01 T01321038  RH  031%=      5-min Rain = 0
KAM1 152236Z 24008KT 13/M04 A3012 RMK A01 T01321037  RH  031%=      5-min Rain = 0
KAM1 152237Z 25007KT 13/M04 A3012 RMK A01 T01301035  RH  032%=      5-min Rain = 0
KAM1 152238Z 27007KT 13/M03 A3012 RMK A01 T01311033  RH  032%=      5-min Rain = 0
KAM1 152239Z 26006KT 13/M04 A3012 RMK A01 T01311036  RH  031%=      5-min Rain = 0
KAM1 152240Z 25005KT 13/M04 A3012 RMK A01 T01291036  RH  032%=      5-min Rain = 0
KAM1 152241Z 23006KT 13/M04 A3012 RMK A01 T01281035  RH  032%=      5-min Rain = 0
KAM1 152242Z 26006KT 13/M04 A3012 RMK A01 T01291035  RH  032%=      5-min Rain = 0
KAM1 152243Z 25004KT 13/M04 A3012 RMK A01 T01291036  RH  032%=      5-min Rain = 0
KAM1 152244Z 26004KT 13/M04 A3012 RMK A01 T01281037  RH  032%=      5-min Rain = 0
KAM1 152245Z 27003KT 13/M04 A3012 RMK A01 T01281037  RH  031%=      5-min Rain = 0
KAM1 152246Z 25005KT 13/M04 A3012 RMK A01 T01271037  RH  032%=      5-min Rain = 0
KAM1 152247Z 27003KT 13/M04 A3012 RMK A01 T01281035  RH  032%=      5-min Rain = 0
KAM1 152248Z 27004KT 13/M04 A3012 RMK A01 T01291036  RH  032%=      5-min Rain = 0
KAM1 152249Z 28003KT 13/M04 A3012 RMK A01 T01281037  RH  031%=      5-min Rain = 0
KAM1 152250Z 28003KT 13/M04 A3012 RMK A01 T01271037  RH  032%=      5-min Rain = 0
KAM1 152251Z 27005KT 13/M04 A3012 RMK A01 T01271037  RH  032%=      5-min Rain = 0
KAM1 152252Z 26004KT 13/M04 A3012 RMK A01 T01271038  RH  031%=      5-min Rain = 0
KAM1 152253Z 26003KT 13/M04 A3012 RMK A01 T01261040  RH  031%=      5-min Rain = 0
KAM1 152254Z 27006KT 13/M04 A3012 RMK A01 T01261041  RH  031%=      5-min Rain = 0
KAM1 152255Z 27007KT 13/M04 A3012 RMK A01 T01271038  RH  031%=      5-min Rain = 0
KAM1 152256Z 25007KT 13/M04 A3012 RMK A01 T01281038  RH  031%=      5-min Rain = 0
KAM1 152257Z 25006KT 13/M04 A3012 RMK A01 T01291038  RH  031%=      5-min Rain = 0
KAM1 152258Z 25005KT 13/M04 A3012 RMK A01 T01291038  RH  031%=      5-min Rain = 0
KAM1 152259Z 26006KT 13/M04 A3012 RMK A01 T01291038  RH  031%=      5-min Rain = 0
KAM1 152300Z 27006KT 13/M04 A3012 RMK A01 T01291038  RH  031%=      5-min Rain = 0
KAM1 152301Z 25005KT 13/M04 A3011 RMK A01 T01281040  RH  031%=      5-min Rain = 0
KAM1 152302Z 24005KT 13/M04 A3011 RMK A01 T01281040  RH  031%=      5-min Rain = 0
KAM1 152303Z 26004KT 13/M04 A3011 RMK A01 T01271040  RH  031%=      5-min Rain = 0
KAM1 152304Z 25005KT 13/M04 A3011 RMK A01 T01271041  RH  031%=      5-min Rain = 0
KAM1 152305Z 24004KT 13/M04 A3011 RMK A01 T01261038  RH  032%=      5-min Rain = 0
KAM1 152306Z 26005KT 13/M04 A3011 RMK A01 T01271037  RH  032%=      5-min Rain = 0
KAM1 152307Z 26006KT 13/M04 A3011 RMK A01 T01281039  RH  031%=      5-min Rain = 0
KAM1 152308Z 28007KT 13/M04 A3011 RMK A01 T01291039  RH  031%=      5-min Rain = 0
KAM1 152309Z 28007KT 13/M04 A3011 RMK A01 T01281042  RH  030%=      5-min Rain = 0
KAM1 152310Z 26006KT 13/M04 A3011 RMK A01 T01271042  RH  030%=      5-min Rain = 0
KAM1 152311Z 23006KT 13/M04 A3011 RMK A01 T01281039  RH  031%=      5-min Rain = 0
KAM1 152312Z 25006KT 13/M04 A3011 RMK A01 T01281038  RH  031%=      5-min Rain = 0
KAM1 152313Z 25008KT 13/M04 A3011 RMK A01 T01291037  RH  031%=      5-min Rain = 0
KAM1 152314Z 22007KT 13/M04 A3011 RMK A01 T01291038  RH  031%=      5-min Rain = 0
KAM1 152315Z 22006KT 13/M04 A3011 RMK A01 T01281038  RH  031%=      5-min Rain = 0
KAM1 152316Z 23005KT 13/M04 A3011 RMK A01 T01271039  RH  031%=      5-min Rain = 0
KAM1 152317Z 24006KT 13/M04 A3011 RMK A01 T01261039  RH  031%=      5-min Rain = 0
KAM1 152318Z 25008KT 13/M04 A3011 RMK A01 T01261039  RH  031%=      5-min Rain = 0
KAM1 152319Z 25009KT 13/M04 A3011 RMK A01 T01261040  RH  031%=      5-min Rain = 0
KAM1 152320Z 25008KT 13/M04 A3011 RMK A01 T01261039  RH  032%=      5-min Rain = 0
KAM1 152321Z 26006KT 13/M04 A3011 RMK A01 T01261038  RH  032%=      5-min Rain = 0
KAM1 152322Z 26007KT 13/M04 A3011 RMK A01 T01251038  RH  032%=      5-min Rain = 0
KAM1 152323Z 26007KT 13/M04 A3011 RMK A01 T01251039  RH  032%=      5-min Rain = 0
KAM1 152324Z 26006KT 13/M04 A3011 RMK A01 T01251038  RH  032%=      5-min Rain = 0
KAM1 152325Z 26005KT 13/M04 A3011 RMK A01 T01251036  RH  032%=      5-min Rain = 0
KAM1 152326Z 26005KT 13/M04 A3011 RMK A01 T01251035  RH  032%=      5-min Rain = 0
KAM1 152327Z 25006KT 13/M04 A3011 RMK A01 T01261035  RH  032%=      5-min Rain = 0
KAM1 152328Z 25005KT 13/M04 A3011 RMK A01 T01261035  RH  032%=      5-min Rain = 0
KAM1 152329Z 25004KT 13/M03 A3011 RMK A01 T01261034  RH  033%=      5-min Rain = 0
KAM1 152330Z 23004KT 13/M03 A3011 RMK A01 T01261034  RH  033%=      5-min Rain = 0
KAM1 152331Z 24004KT 13/M04 A3011 RMK A01 T01261035  RH  032%=      5-min Rain = 0
KAM1 152332Z 24004KT 13/M04 A3011 RMK A01 T01271037  RH  032%=      5-min Rain = 0
KAM1 152333Z 24003KT 13/M04 A3011 RMK A01 T01261038  RH  032%=      5-min Rain = 0
KAM1 152334Z 24003KT 13/M04 A3011 RMK A01 T01261036  RH  032%=      5-min Rain = 0
KAM1 152335Z 24006KT 13/M04 A3011 RMK A01 T01261037  RH  032%=      5-min Rain = 0
KAM1 152336Z 25006KT 13/M04 A3011 RMK A01 T01261038  RH  032%=      5-min Rain = 0
KAM1 152337Z 26006KT 13/M04 A3011 RMK A01 T01251038  RH  032%=      5-min Rain = 0
KAM1 152338Z 26006KT 12/M04 A3011 RMK A01 T01241037  RH  032%=      5-min Rain = 0
KAM1 152339Z 26006KT 12/M04 A3011 RMK A01 T01241036  RH  032%=      5-min Rain = 0
KAM1 152340Z 26006KT 12/M04 A3011 RMK A01 T01241036  RH  033%=      5-min Rain = 0
KAM1 152341Z 25005KT 12/M04 A3011 RMK A01 T01241036  RH  033%=      5-min Rain = 0
KAM1 152342Z 25004KT 12/M04 A3011 RMK A01 T01231036  RH  033%=      5-min Rain = 0
KAM1 152343Z 26005KT 12/M04 A3011 RMK A01 T01231036  RH  033%=      5-min Rain = 0
KAM1 152344Z 26005KT 12/M04 A3011 RMK A01 T01231036  RH  033%=      5-min Rain = 0
KAM1 152345Z 26006KT 12/M04 A3011 RMK A01 T01231036  RH  033%=      5-min Rain = 0
KAM1 152346Z 26005KT 12/M04 A3011 RMK A01 T01221035  RH  033%=      5-min Rain = 0
KAM1 152347Z 26005KT 12/M04 A3011 RMK A01 T01221035  RH  033%=      5-min Rain = 0
KAM1 152348Z 26004KT 12/M04 A3011 RMK A01 T01221035  RH  033%=      5-min Rain = 0
KAM1 152349Z 24004KT 12/M04 A3011 RMK A01 T01221035  RH  033%=      5-min Rain = 0
KAM1 152350Z 25003KT 12/M03 A3011 RMK A01 T01221034  RH  034%=      5-min Rain = 0
KAM1 152351Z 25004KT 12/M03 A3011 RMK A01 T01221034  RH  033%=      5-min Rain = 0
KAM1 152352Z 25004KT 12/M04 A3011 RMK A01 T01211035  RH  033%=      5-min Rain = 0
KAM1 152353Z 24004KT 12/M03 A3011 RMK A01 T01211034  RH  034%=      5-min Rain = 0
KAM1 152354Z 25005KT 12/M04 A3011 RMK A01 T01211035  RH  034%=      5-min Rain = 0
KAM1 152355Z 25004KT 12/M04 A3011 RMK A01 T01201036  RH  034%=      5-min Rain = 0
KAM1 152356Z 25005KT 12/M04 A3011 RMK A01 T01191035  RH  034%=      5-min Rain = 0
KAM1 152357Z 25005KT 12/M04 A3011 RMK A01 T01181035  RH  034%=      5-min Rain = 0
KAM1 152358Z 25004KT 12/M03 A3011 RMK A01 T01181034  RH  035%=      5-min Rain = 0
KAM1 152359Z 25004KT 12/M03 A3011 RMK A01 T01161033  RH  035%=      5-min Rain = 0
KAM1 160000Z 25004KT 12/M03 A3011 RMK A01 T01161032  RH  035%=      5-min Rain = 0
KAM1 160001Z 25004KT 12/M03 A3011 RMK A01 T01151032  RH  036%=      5-min Rain = 0
KAM1 160002Z 25004KT 11/M03 A3011 RMK A01 T01141032  RH  036%=      5-min Rain = 0
KAM1 160003Z 25004KT 11/M03 A3011 RMK A01 T01141032  RH  036%=      5-min Rain = 0
KAM1 160004Z 24004KT 11/M03 A3011 RMK A01 T01131032  RH  036%=      5-min Rain = 0
KAM1 160005Z 24004KT 11/M03 A3011 RMK A01 T01121033  RH  036%=      5-min Rain = 0
KAM1 160006Z 23003KT 11/M03 A3011 RMK A01 T01121033  RH  036%=      5-min Rain = 0
KAM1 160007Z 23004KT 11/M03 A3011 RMK A01 T01111034  RH  036%=      5-min Rain = 0
KAM1 160008Z 22004KT 11/M03 A3011 RMK A01 T01101034  RH  036%=      5-min Rain = 0
KAM1 160009Z 22004KT 11/M04 A3011 RMK A01 T01091035  RH  036%=      5-min Rain = 0
KAM1 160010Z 22004KT 11/M04 A3011 RMK A01 T01081035  RH  036%=      5-min Rain = 0
KAM1 160011Z 22005KT 11/M04 A301 RMK A01 T01071036  RH  036%=      5-min Rain = 0
KAM1 160012Z 22005KT 11/M04 A301 RMK A01 T01061037  RH  036%=      5-min Rain = 0
KAM1 160013Z 23005KT 11/M04 A301 RMK A01 T01051038  RH  036%=      5-min Rain = 0
KAM1 160014Z 22005KT 10/M04 A301 RMK A01 T01031039  RH  037%=      5-min Rain = 0
KAM1 160015Z 22005KT 10/M04 A301 RMK A01 T01001040  RH  037%=      5-min Rain = 0
KAM1 160016Z 22005KT 10/M04 A301 RMK A01 T00991039  RH  038%=      5-min Rain = 0
KAM1 160017Z 22005KT 10/M04 A301 RMK A01 T00971039  RH  038%=      5-min Rain = 0
KAM1 160018Z 22004KT 10/M04 A301 RMK A01 T00961040  RH  038%=      5-min Rain = 0
KAM1 160019Z 22004KT 09/M04 A301 RMK A01 T00941039  RH  039%=      5-min Rain = 0
KAM1 160020Z 22005KT 09/M04 A301 RMK A01 T00931039  RH  039%=      5-min Rain = 0
KAM1 160021Z 22005KT 09/M04 A301 RMK A01 T00921038  RH  040%=      5-min Rain = 0
KAM1 160022Z 22005KT 09/M04 A301 RMK A01 T00901038  RH  040%=      5-min Rain = 0
KAM1 160023Z 22005KT 09/M04 A301 RMK A01 T00891037  RH  041%=      5-min Rain = 0
KAM1 160024Z 22005KT 09/M04 A301 RMK A01 T00881036  RH  041%=      5-min Rain = 0
KAM1 160025Z 22005KT 09/M04 A301 RMK A01 T00881036  RH  042%=      5-min Rain = 0
KAM1 160026Z 21005KT 09/M04 A301 RMK A01 T00871035  RH  042%=      5-min Rain = 0
KAM1 160027Z 21005KT 09/M04 A301 RMK A01 T00851035  RH  043%=      5-min Rain = 0
KAM1 160028Z 21005KT 08/M03 A301 RMK A01 T00841034  RH  043%=      5-min Rain = 0
KAM1 160029Z 21005KT 08/M03 A301 RMK A01 T00841034  RH  043%=      5-min Rain = 0
KAM1 160030Z 21005KT 08/M03 A301 RMK A01 T00831033  RH  044%=      5-min Rain = 0
KAM1 160031Z 21005KT 08/M03 A301 RMK A01 T00821033  RH  044%=      5-min Rain = 0
KAM1 160032Z 21005KT 08/M03 A301 RMK A01 T00821033  RH  044%=      5-min Rain = 0
KAM1 160033Z 21005KT 08/M03 A301 RMK A01 T00811033  RH  044%=      5-min Rain = 0
KAM1 160034Z 21006KT 08/M03 A301 RMK A01 T00801033  RH  045%=      5-min Rain = 0
KAM1 160035Z 21006KT 08/M03 A301 RMK A01 T00791033  RH  045%=      5-min Rain = 0
KAM1 160036Z 21006KT 08/M03 A301 RMK A01 T00781032  RH  046%=      5-min Rain = 0
KAM1 160037Z 21006KT 08/M03 A301 RMK A01 T00771032  RH  046%=      5-min Rain = 0
KAM1 160038Z 21006KT 08/M03 A301 RMK A01 T00751032  RH  047%=      5-min Rain = 0
KAM1 160039Z 21006KT 07/M03 A301 RMK A01 T00731032  RH  047%=      5-min Rain = 0
KAM1 160040Z 21006KT 07/M03 A301 RMK A01 T00721031  RH  048%=      5-min Rain = 0
KAM1 160041Z 21006KT 07/M03 A301 RMK A01 T00711031  RH  048%=      5-min Rain = 0
KAM1 160042Z 21006KT 07/M03 A301 RMK A01 T00711030  RH  049%=      5-min Rain = 0
KAM1 160043Z 21006KT 07/M03 A301 RMK A01 T00701030  RH  049%=      5-min Rain = 0
KAM1 160044Z 21006KT 07/M03 A301 RMK A01 T00691030  RH  049%=      5-min Rain = 0
KAM1 160045Z 21006KT 07/M03 A301 RMK A01 T00681030  RH  050%=      5-min Rain = 0
KAM1 160046Z 21006KT 07/M03 A301 RMK A01 T00681030  RH  050%=      5-min Rain = 0
KAM1 160047Z 21006KT 07/M03 A301 RMK A01 T00671030  RH  050%=      5-min Rain = 0
KAM1 160048Z 21006KT 07/M03 A301 RMK A01 T00671030  RH  050%=      5-min Rain = 0
KAM1 160049Z 21006KT 07/M03 A301 RMK A01 T00661031  RH  050%=      5-min Rain = 0
KAM1 160050Z 21006KT 07/M03 A301 RMK A01 T00651032  RH  050%=      5-min Rain = 0
KAM1 160051Z 21006KT 07/M03 A301 RMK A01 T00651031  RH  050%=      5-min Rain = 0
KAM1 160052Z 22006KT 07/M03 A301 RMK A01 T00651032  RH  050%=      5-min Rain = 0
KAM1 160053Z 22006KT 06/M03 A301 RMK A01 T00641032  RH  050%=      5-min Rain = 0
KAM1 160054Z 22006KT 06/M03 A301 RMK A01 T00631033  RH  050%=      5-min Rain = 0
KAM1 160055Z 22006KT 06/M03 A301 RMK A01 T00621034  RH  050%=      5-min Rain = 0
KAM1 160056Z 21006KT 06/M03 A301 RMK A01 T00611034  RH  050%=      5-min Rain = 0
KAM1 160057Z 21006KT 06/M03 A301 RMK A01 T00601034  RH  051%=      5-min Rain = 0
KAM1 160058Z 21006KT 06/M03 A301 RMK A01 T00591034  RH  051%=      5-min Rain = 0
KAM1 160059Z 21006KT 06/M03 A301 RMK A01 T00591034  RH  051%=      5-min Rain = 0
KAM1 160100Z 21006KT 06/M03 A301 RMK A01 T00581034  RH  051%=      5-min Rain = 0
KAM1 160101Z 21006KT 06/M03 A301 RMK A01 T00571034  RH  052%=      5-min Rain = 0
KAM1 160102Z 20006KT 06/M03 A301 RMK A01 T00561033  RH  053%=      5-min Rain = 0
KAM1 160103Z 20006KT 06/M03 A301 RMK A01 T00561032  RH  053%=      5-min Rain = 0
KAM1 160104Z 20006KT 06/M03 A301 RMK A01 T00561031  RH  053%=      5-min Rain = 0
KAM1 160105Z 20006KT 06/M03 A301 RMK A01 T00561031  RH  053%=      5-min Rain = 0
KAM1 160106Z 20006KT 06/M03 A301 RMK A01 T00561031  RH  053%=      5-min Rain = 0
KAM1 160107Z 20006KT 06/M03 A301 RMK A01 T00551031  RH  054%=      5-min Rain = 0
KAM1 160108Z 20006KT 06/M03 A301 RMK A01 T00551031  RH  054%=      5-min Rain = 0
KAM1 160109Z 20006KT 06/M03 A301 RMK A01 T00551030  RH  054%=      5-min Rain = 0
KAM1 160110Z 20006KT 06/M03 A301 RMK A01 T00551030  RH  054%=      5-min Rain = 0
KAM1 160111Z 20006KT 06/M03 A301 RMK A01 T00561029  RH  054%=      5-min Rain = 0
KAM1 160112Z 20006KT 06/M03 A301 RMK A01 T00561028  RH  054%=      5-min Rain = 0
KAM1 160113Z 20006KT 06/M03 A301 RMK A01 T00571028  RH  054%=      5-min Rain = 0
KAM1 160114Z 20006KT 06/M03 A301 RMK A01 T00571028  RH  054%=      5-min Rain = 0
KAM1 160115Z 20007KT 06/M03 A301 RMK A01 T00571029  RH  054%=      5-min Rain = 0
KAM1 160116Z 20007KT 06/M03 A301 RMK A01 T00571030  RH  054%=      5-min Rain = 0
KAM1 160117Z 20007KT 06/M03 A301 RMK A01 T00571031  RH  053%=      5-min Rain = 0
KAM1 160118Z 20006KT 06/M03 A301 RMK A01 T00571032  RH  053%=      5-min Rain = 0
KAM1 160119Z 20006KT 06/M03 A301 RMK A01 T00561033  RH  053%=      5-min Rain = 0
KAM1 160120Z 19006KT 06/M03 A301 RMK A01 T00561033  RH  053%=      5-min Rain = 0
KAM1 160121Z 19006KT 06/M03 A301 RMK A01 T00551033  RH  053%=      5-min Rain = 0
KAM1 160122Z 19005KT 05/M03 A301 RMK A01 T00541031  RH  054%=      5-min Rain = 0
KAM1 160123Z 19006KT 05/M03 A301 RMK A01 T00531029  RH  055%=      5-min Rain = 0
KAM1 160124Z 19006KT 05/M03 A301 RMK A01 T00531028  RH  056%=      5-min Rain = 0
KAM1 160125Z 19005KT 05/M03 A301 RMK A01 T00531029  RH  056%=      5-min Rain = 0
KAM1 160126Z 19005KT 05/M03 A3011 RMK A01 T00521029  RH  056%=      5-min Rain = 0
KAM1 160127Z 19005KT 05/M03 A3011 RMK A01 T00521028  RH  056%=      5-min Rain = 0
KAM1 160128Z 19005KT 05/M03 A3011 RMK A01 T00521028  RH  056%=      5-min Rain = 0
KAM1 160129Z 19005KT 05/M03 A3011 RMK A01 T00511028  RH  056%=      5-min Rain = 0
KAM1 160130Z 19005KT 05/M03 A3011 RMK A01 T00511028  RH  057%=      5-min Rain = 0
KAM1 160131Z 19005KT 05/M03 A3011 RMK A01 T00511028  RH  057%=      5-min Rain = 0
KAM1 160132Z 19005KT 05/M03 A3011 RMK A01 T00511028  RH  057%=      5-min Rain = 0
KAM1 160133Z 20005KT 05/M03 A3011 RMK A01 T00511028  RH  057%=      5-min Rain = 0
KAM1 160134Z 20005KT 05/M03 A3011 RMK A01 T00511027  RH  057%=      5-min Rain = 0
KAM1 160135Z 20005KT 05/M03 A3011 RMK A01 T00511028  RH  057%=      5-min Rain = 0
KAM1 160136Z 20005KT 05/M03 A3011 RMK A01 T00511028  RH  057%=      5-min Rain = 0
KAM1 160137Z 20005KT 05/M03 A3011 RMK A01 T00521028  RH  056%=      5-min Rain = 0
KAM1 160138Z 20005KT 05/M03 A3011 RMK A01 T00521028  RH  056%=      5-min Rain = 0
KAM1 160139Z 20006KT 05/M03 A3011 RMK A01 T00511028  RH  057%=      5-min Rain = 0
KAM1 160140Z 20006KT 05/M03 A3011 RMK A01 T00511028  RH  057%=      5-min Rain = 0
KAM1 160141Z 20006KT 05/M03 A3011 RMK A01 T00501028  RH  057%=      5-min Rain = 0
KAM1 160142Z 20006KT 05/M03 A3011 RMK A01 T00501028  RH  057%=      5-min Rain = 0
KAM1 160143Z 20006KT 05/M03 A3011 RMK A01 T00501028  RH  057%=      5-min Rain = 0
KAM1 160144Z 20006KT 05/M03 A3011 RMK A01 T00491029  RH  057%=      5-min Rain = 0
KAM1 160145Z 20006KT 05/M03 A3011 RMK A01 T00481030  RH  057%=      5-min Rain = 0
KAM1 160146Z 20005KT 05/M03 A3011 RMK A01 T00471031  RH  057%=      5-min Rain = 0
KAM1 160147Z 20006KT 05/M03 A3011 RMK A01 T00461032  RH  057%=      5-min Rain = 0
KAM1 160148Z 20005KT 05/M03 A3011 RMK A01 T00451032  RH  057%=      5-min Rain = 0
KAM1 160149Z 20005KT 05/M03 A3011 RMK A01 T00451032  RH  057%=      5-min Rain = 0
KAM1 160150Z 20005KT 04/M03 A3011 RMK A01 T00441032  RH  058%=      5-min Rain = 0
KAM1 160151Z 20006KT 04/M03 A3011 RMK A01 T00441032  RH  058%=      5-min Rain = 0
KAM1 160152Z 20006KT 04/M03 A3011 RMK A01 T00441032  RH  058%=      5-min Rain = 0
KAM1 160153Z 20006KT 05/M03 A3011 RMK A01 T00451032  RH  058%=      5-min Rain = 0
KAM1 160154Z 19006KT 05/M03 A3011 RMK A01 T00451032  RH  057%=      5-min Rain = 0
KAM1 160155Z 19006KT 05/M03 A3011 RMK A01 T00451031  RH  058%=      5-min Rain = 0
KAM1 160156Z 19006KT 05/M03 A3011 RMK A01 T00451031  RH  058%=      5-min Rain = 0
KAM1 160157Z 19006KT 04/M03 A3011 RMK A01 T00441031  RH  058%=      5-min Rain = 0
KAM1 160158Z 20006KT 04/M03 A3011 RMK A01 T00441031  RH  058%=      5-min Rain = 0
KAM1 160159Z 20006KT 04/M03 A3011 RMK A01 T00441031  RH  058%=      5-min Rain = 0
KAM1 160200Z 20006KT 04/M03 A3011 RMK A01 T00431032  RH  058%=      5-min Rain = 0
KAM1 160201Z 20006KT 04/M03 A3011 RMK A01 T00421032  RH  059%=      5-min Rain = 0
KAM1 160202Z 20006KT 04/M03 A3011 RMK A01 T00421031  RH  059%=      5-min Rain = 0
KAM1 160203Z 20006KT 04/M03 A3011 RMK A01 T00411032  RH  059%=      5-min Rain = 0
KAM1 160204Z 20006KT 04/M03 A3011 RMK A01 T00411031  RH  059%=      5-min Rain = 0
KAM1 160205Z 20006KT 04/M03 A3011 RMK A01 T00411031  RH  059%=      5-min Rain = 0
KAM1 160206Z 21006KT 04/M03 A3011 RMK A01 T00411030  RH  060%=      5-min Rain = 0
KAM1 160207Z 21006KT 04/M03 A3011 RMK A01 T00411030  RH  060%=      5-min Rain = 0
KAM1 160208Z 21006KT 04/M03 A3011 RMK A01 T00411031  RH  059%=      5-min Rain = 0
KAM1 160209Z 21006KT 04/M03 A3011 RMK A01 T00411031  RH  059%=      5-min Rain = 0
KAM1 160210Z 21006KT 04/M03 A3011 RMK A01 T00401032  RH  059%=      5-min Rain = 0
KAM1 160211Z 21006KT 04/M03 A3011 RMK A01 T00401032  RH  059%=      5-min Rain = 0
KAM1 160212Z 20006KT 04/M03 A3011 RMK A01 T00391032  RH  060%=      5-min Rain = 0
KAM1 160213Z 21006KT 04/M03 A3011 RMK A01 T00391032  RH  060%=      5-min Rain = 0
KAM1 160214Z 20006KT 04/M03 A3011 RMK A01 T00391031  RH  060%=      5-min Rain = 0
KAM1 160215Z 20006KT 04/M03 A3011 RMK A01 T00391031  RH  060%=      5-min Rain = 0
KAM1 160216Z 20006KT 04/M03 A3011 RMK A01 T00381032  RH  060%=      5-min Rain = 0
KAM1 160217Z 20006KT 04/M03 A3011 RMK A01 T00381032  RH  060%=      5-min Rain = 0
KAM1 160218Z 20006KT 04/M03 A3011 RMK A01 T00381031  RH  061%=      5-min Rain = 0
KAM1 160219Z 20006KT 04/M03 A3011 RMK A01 T00381031  RH  061%=      5-min Rain = 0
KAM1 160220Z 20006KT 04/M03 A3011 RMK A01 T00381031  RH  061%=      5-min Rain = 0
KAM1 160221Z 20006KT 04/M03 A3011 RMK A01 T00381030  RH  061%=      5-min Rain = 0
KAM1 160222Z 20006KT 04/M03 A3011 RMK A01 T00381030  RH  061%=      5-min Rain = 0
KAM1 160223Z 20006KT 04/M03 A3011 RMK A01 T00381031  RH  061%=      5-min Rain = 0
KAM1 160224Z 20006KT 04/M03 A3011 RMK A01 T00391031  RH  061%=      5-min Rain = 0
KAM1 160225Z 20007KT 04/M03 A3011 RMK A01 T00381031  RH  060%=      5-min Rain = 0
KAM1 160226Z 20007KT 04/M03 A3011 RMK A01 T00371032  RH  061%=      5-min Rain = 0
KAM1 160227Z 20007KT 04/M03 A3011 RMK A01 T00361032  RH  061%=      5-min Rain = 0
KAM1 160228Z 20007KT 04/M03 A3011 RMK A01 T00351032  RH  061%=      5-min Rain = 0
KAM1 160229Z 20007KT 04/M03 A3011 RMK A01 T00351032  RH  062%=      5-min Rain = 0
KAM1 160230Z 20007KT 03/M03 A3011 RMK A01 T00341032  RH  062%=      5-min Rain = 0
KAM1 160231Z 20007KT 03/M03 A3011 RMK A01 T00341032  RH  062%=      5-min Rain = 0
KAM1 160232Z 20007KT 03/M03 A3011 RMK A01 T00331032  RH  062%=      5-min Rain = 0
KAM1 160233Z 20007KT 03/M03 A3011 RMK A01 T00331031  RH  063%=      5-min Rain = 0
KAM1 160234Z 20007KT 03/M03 A3011 RMK A01 T00321031  RH  063%=      5-min Rain = 0
KAM1 160235Z 20007KT 03/M03 A3011 RMK A01 T00321031  RH  063%=      5-min Rain = 0
KAM1 160236Z 20007KT 03/M03 A3011 RMK A01 T00321031  RH  063%=      5-min Rain = 0
KAM1 160237Z 20007KT 03/M03 A3011 RMK A01 T00321031  RH  063%=      5-min Rain = 0
KAM1 160238Z 20007KT 03/M03 A3011 RMK A01 T00321031  RH  063%=      5-min Rain = 0
KAM1 160239Z 20007KT 03/M03 A3011 RMK A01 T00321032  RH  063%=      5-min Rain = 0
KAM1 160240Z 20007KT 03/M03 A3011 RMK A01 T00321032  RH  063%=      5-min Rain = 0
KAM1 160241Z 20007KT 03/M03 A3011 RMK A01 T00311032  RH  063%=      5-min Rain = 0
KAM1 160242Z 20006KT 03/M03 A3011 RMK A01 T00301033  RH  063%=      5-min Rain = 0
KAM1 160243Z 20006KT 03/M03 A3011 RMK A01 T00301032  RH  064%=      5-min Rain = 0
KAM1 160244Z 20006KT 03/M03 A3011 RMK A01 T00301032  RH  064%=      5-min Rain = 0
KAM1 160245Z 20006KT 03/M03 A3011 RMK A01 T00301032  RH  064%=      5-min Rain = 0
KAM1 160246Z 20007KT 03/M03 A3011 RMK A01 T00311031  RH  064%=      5-min Rain = 0
KAM1 160247Z 20007KT 03/M03 A3011 RMK A01 T00311031  RH  064%=      5-min Rain = 0
KAM1 160248Z 21007KT 03/M03 A3011 RMK A01 T00311031  RH  064%=      5-min Rain = 0
KAM1 160249Z 20007KT 03/M03 A3011 RMK A01 T00311031  RH  064%=      5-min Rain = 0
KAM1 160250Z 20007KT 03/M03 A3011 RMK A01 T00311032  RH  064%=      5-min Rain = 0
KAM1 160251Z 20007KT 03/M03 A3011 RMK A01 T00301032  RH  064%=      5-min Rain = 0
KAM1 160252Z 20007KT 03/M03 A3011 RMK A01 T00291032  RH  064%=      5-min Rain = 0
KAM1 160253Z 20007KT 03/M03 A3011 RMK A01 T00281033  RH  064%=      5-min Rain = 0
KAM1 160254Z 21007KT 03/M03 A3011 RMK A01 T00271033  RH  064%=      5-min Rain = 0
KAM1 160255Z 21007KT 03/M03 A3011 RMK A01 T00261034  RH  065%=      5-min Rain = 0
KAM1 160256Z 21007KT 03/M03 A3011 RMK A01 T00261033  RH  065%=      5-min Rain = 0
KAM1 160257Z 21006KT 02/M03 A3011 RMK A01 T00241034  RH  066%=      5-min Rain = 0
KAM1 160258Z 20007KT 02/M03 A3011 RMK A01 T00231034  RH  066%=      5-min Rain = 0
KAM1 160259Z 20007KT 02/M03 A3011 RMK A01 T00221034  RH  066%=      5-min Rain = 0
KAM1 160300Z 20007KT 02/M03 A3011 RMK A01 T00221033  RH  067%=      5-min Rain = 0
KAM1 160301Z 20007KT 02/M03 A3011 RMK A01 T00221033  RH  067%=      5-min Rain = 0
KAM1 160302Z 21007KT 02/M03 A3011 RMK A01 T00221032  RH  067%=      5-min Rain = 0
KAM1 160303Z 21007KT 02/M03 A3011 RMK A01 T00221032  RH  067%=      5-min Rain = 0
KAM1 160304Z 21006KT 02/M03 A3011 RMK A01 T00221032  RH  067%=      5-min Rain = 0
KAM1 160305Z 21006KT 02/M03 A3011 RMK A01 T00211033  RH  068%=      5-min Rain = 0
KAM1 160306Z 21006KT 02/M03 A3011 RMK A01 T00201033  RH  068%=      5-min Rain = 0
KAM1 160307Z 21007KT 02/M03 A3011 RMK A01 T00201033  RH  068%=      5-min Rain = 0
KAM1 160308Z 21007KT 02/M03 A3011 RMK A01 T00191033  RH  068%=      5-min Rain = 0
KAM1 160309Z 21006KT 02/M03 A3011 RMK A01 T00191033  RH  068%=      5-min Rain = 0
KAM1 160310Z 22007KT 02/M03 A3011 RMK A01 T00191033  RH  069%=      5-min Rain = 0
KAM1 160311Z 22007KT 02/M03 A3012 RMK A01 T00181031  RH  070%=      5-min Rain = 0
KAM1 160312Z 22007KT 02/M03 A3012 RMK A01 T00191030  RH  070%=      5-min Rain = 0
KAM1 160313Z 21008KT 02/M03 A3012 RMK A01 T00191030  RH  070%=      5-min Rain = 0
KAM1 160314Z 21008KT 02/M03 A3012 RMK A01 T00201031  RH  069%=      5-min Rain = 0
KAM1 160315Z 22007KT 02/M03 A3012 RMK A01 T00191031  RH  069%=      5-min Rain = 0
KAM1 160316Z 22007KT 02/M03 A3012 RMK A01 T00191031  RH  069%=      5-min Rain = 0
KAM1 160317Z 22007KT 02/M03 A3012 RMK A01 T00191030  RH  070%=      5-min Rain = 0
KAM1 160318Z 22007KT 02/M03 A3012 RMK A01 T00191030  RH  070%=      5-min Rain = 0
KAM1 160319Z 22007KT 02/M03 A3012 RMK A01 T00181031  RH  070%=      5-min Rain = 0
KAM1 160320Z 22008KT 02/M03 A3012 RMK A01 T00171031  RH  071%=      5-min Rain = 0
KAM1 160321Z 22007KT 02/M03 A3012 RMK A01 T00161031  RH  071%=      5-min Rain = 0
KAM1 160322Z 22007KT 02/M03 A3012 RMK A01 T00161031  RH  071%=      5-min Rain = 0
KAM1 160323Z 22007KT 02/M03 A3012 RMK A01 T00161030  RH  071%=      5-min Rain = 0
KAM1 160324Z 22007KT 02/M03 A3012 RMK A01 T00161030  RH  071%=      5-min Rain = 0
KAM1 160325Z 22007KT 02/M03 A3012 RMK A01 T00161031  RH  071%=      5-min Rain = 0
KAM1 160326Z 22007KT 02/M03 A3012 RMK A01 T00151031  RH  071%=      5-min Rain = 0
KAM1 160327Z 22007KT 02/M03 A3012 RMK A01 T00151031  RH  072%=      5-min Rain = 0
KAM1 160328Z 22007KT 01/M03 A3012 RMK A01 T00141031  RH  072%=      5-min Rain = 0
KAM1 160329Z 22007KT 01/M03 A3012 RMK A01 T00131032  RH  072%=      5-min Rain = 0
KAM1 160330Z 22007KT 01/M03 A3012 RMK A01 T00121032  RH  072%=      5-min Rain = 0
KAM1 160331Z 22006KT 01/M03 A3012 RMK A01 T00121032  RH  072%=      5-min Rain = 0
KAM1 160332Z 22006KT 01/M03 A3012 RMK A01 T00121032  RH  073%=      5-min Rain = 0
KAM1 160333Z 22006KT 01/M03 A3012 RMK A01 T00111032  RH  073%=      5-min Rain = 0
KAM1 160334Z 22007KT 01/M03 A3012 RMK A01 T00111032  RH  073%=      5-min Rain = 0
KAM1 160335Z 21007KT 01/M03 A3012 RMK A01 T00101032  RH  073%=      5-min Rain = 0
KAM1 160336Z 21007KT 01/M03 A3012 RMK A01 T00101033  RH  073%=      5-min Rain = 0
KAM1 160337Z 21007KT 01/M03 A3012 RMK A01 T00091033  RH  074%=      5-min Rain = 0
KAM1 160338Z 21007KT 01/M03 A3012 RMK A01 T00091032  RH  074%=      5-min Rain = 0
KAM1 160339Z 21007KT 01/M03 A3012 RMK A01 T00091033  RH  074%=      5-min Rain = 0
KAM1 160340Z 21007KT 01/M03 A3012 RMK A01 T00091033  RH  074%=      5-min Rain = 0
KAM1 160341Z 21007KT 01/M03 A3012 RMK A01 T00081033  RH  074%=      5-min Rain = 0
KAM1 160342Z 21007KT 01/M03 A3011 RMK A01 T00081033  RH  074%=      5-min Rain = 0
KAM1 160343Z 21006KT 01/M03 A3011 RMK A01 T00071033  RH  074%=      5-min Rain = 0
KAM1 160344Z 21007KT 01/M03 A3011 RMK A01 T00071033  RH  075%=      5-min Rain = 0
KAM1 160345Z 21007KT 01/M03 A3011 RMK A01 T00071032  RH  075%=      5-min Rain = 0
KAM1 160346Z 21007KT 01/M03 A3011 RMK A01 T00061033  RH  075%=      5-min Rain = 0
KAM1 160347Z 21007KT 01/M03 A3011 RMK A01 T00061032  RH  075%=      5-min Rain = 0
KAM1 160348Z 21008KT 01/M03 A3011 RMK A01 T00061033  RH  075%=      5-min Rain = 0
KAM1 160349Z 21008KT 01/M03 A3011 RMK A01 T00061033  RH  075%=      5-min Rain = 0
KAM1 160350Z 21008KT 01/M03 A3011 RMK A01 T00051033  RH  076%=      5-min Rain = 0
KAM1 160351Z 21008KT 01/M03 A3011 RMK A01 T00051033  RH  076%=      5-min Rain = 0
KAM1 160352Z 21008KT 00/M03 A3011 RMK A01 T00041033  RH  076%=      5-min Rain = 0
KAM1 160353Z 21008KT 00/M03 A3011 RMK A01 T00041033  RH  076%=      5-min Rain = 0
KAM1 160354Z 21008KT 00/M03 A3011 RMK A01 T00041033  RH  076%=      5-min Rain = 0
KAM1 160355Z 21008KT 01/M03 A3011 RMK A01 T00051033  RH  076%=      5-min Rain = 0
KAM1 160356Z 21008KT 01/M03 A3011 RMK A01 T00051033  RH  076%=      5-min Rain = 0
KAM1 160357Z 21008KT 01/M03 A3011 RMK A01 T00051032  RH  076%=      5-min Rain = 0
KAM1 160358Z 21009KT 01/M03 A3011 RMK A01 T00061031  RH  076%=      5-min Rain = 0
KAM1 160359Z 21009KT 01/M03 A3011 RMK A01 T00081030  RH  076%=      5-min Rain = 0
KAM1 160400Z 21008KT 01/M03 A3011 RMK A01 T00091029  RH  076%=      5-min Rain = 0
KAM1 160401Z 21008KT 01/M03 A3011 RMK A01 T00101029  RH  075%=      5-min Rain = 0
KAM1 160402Z 21008KT 01/M03 A3011 RMK A01 T00111028  RH  075%=      5-min Rain = 0
KAM1 160403Z 21008KT 01/M03 A3011 RMK A01 T00111028  RH  075%=      5-min Rain = 0
KAM1 160404Z 21008KT 01/M03 A3011 RMK A01 T00121028  RH  075%=      5-min Rain = 0
KAM1 160405Z 21008KT 01/M03 A3011 RMK A01 T00121028  RH  075%=      5-min Rain = 0
KAM1 160406Z 21008KT 01/M03 A3011 RMK A01 T00131027  RH  074%=      5-min Rain = 0
KAM1 160407Z 21008KT 01/M03 A3011 RMK A01 T00141027  RH  074%=      5-min Rain = 0
KAM1 160408Z 21008KT 01/M03 A3011 RMK A01 T00141027  RH  074%=      5-min Rain = 0
KAM1 160409Z 21008KT 01/M03 A3011 RMK A01 T00141027  RH  074%=      5-min Rain = 0
KAM1 160410Z 21008KT 01/M03 A3011 RMK A01 T00141027  RH  074%=      5-min Rain = 0
KAM1 160411Z 21008KT 01/M03 A3011 RMK A01 T00141027  RH  074%=      5-min Rain = 0
KAM1 160412Z 21008KT 01/M03 A3011 RMK A01 T00131027  RH  074%=      5-min Rain = 0
KAM1 160413Z 21008KT 01/M03 A3011 RMK A01 T00131027  RH  075%=      5-min Rain = 0
KAM1 160414Z 21008KT 01/M03 A3011 RMK A01 T00131027  RH  075%=      5-min Rain = 0
KAM1 160415Z 21008KT 01/M03 A3011 RMK A01 T00131027  RH  075%=      5-min Rain = 0
KAM1 160416Z 21008KT 01/M03 A3011 RMK A01 T00131027  RH  074%=      5-min Rain = 0
KAM1 160417Z 21008KT 01/M03 A3011 RMK A01 T00131028  RH  074%=      5-min Rain = 0
KAM1 160418Z 21008KT 01/M03 A3011 RMK A01 T00141028  RH  074%=      5-min Rain = 0
KAM1 160419Z 21008KT 01/M03 A3011 RMK A01 T00141028  RH  074%=      5-min Rain = 0
KAM1 160420Z 21008KT 01/M03 A3011 RMK A01 T00141028  RH  074%=      5-min Rain = 0
KAM1 160421Z 21008KT 01/M03 A3011 RMK A01 T00131028  RH  074%=      5-min Rain = 0
KAM1 160422Z 21008KT 01/M03 A3011 RMK A01 T00131028  RH  074%=      5-min Rain = 0
KAM1 160423Z 21008KT 01/M03 A3011 RMK A01 T00121029  RH  074%=      5-min Rain = 0
KAM1 160424Z 21008KT 01/M03 A3011 RMK A01 T00121029  RH  074%=      5-min Rain = 0
KAM1 160425Z 21008KT 01/M03 A3011 RMK A01 T00111029  RH  074%=      5-min Rain = 0
KAM1 160426Z 21007KT 01/M03 A3011 RMK A01 T00111029  RH  074%=      5-min Rain = 0
KAM1 160427Z 21007KT 01/M03 A3011 RMK A01 T00121029  RH  075%=      5-min Rain = 0
KAM1 160428Z 21007KT 01/M03 A3011 RMK A01 T00111029  RH  075%=      5-min Rain = 0
KAM1 160429Z 21008KT 01/M03 A3011 RMK A01 T00111029  RH  075%=      5-min Rain = 0
KAM1 160430Z 21007KT 01/M03 A3011 RMK A01 T00111029  RH  075%=      5-min Rain = 0
KAM1 160431Z 21007KT 01/M03 A3011 RMK A01 T00101029  RH  075%=      5-min Rain = 0
KAM1 160432Z 21007KT 01/M03 A3011 RMK A01 T00101030  RH  075%=      5-min Rain = 0
KAM1 160433Z 22007KT 01/M03 A3011 RMK A01 T00101030  RH  075%=      5-min Rain = 0
KAM1 160434Z 21007KT 01/M03 A3011 RMK A01 T00091030  RH  075%=      5-min Rain = 0
KAM1 160435Z 21007KT 01/M03 A3011 RMK A01 T00081030  RH  075%=      5-min Rain = 0
KAM1 160436Z 21007KT 01/M03 A3011 RMK A01 T00081031  RH  075%=      5-min Rain = 0
KAM1 160437Z 21007KT 01/M03 A3011 RMK A01 T00071031  RH  076%=      5-min Rain = 0
KAM1 160438Z 21007KT 01/M03 A3011 RMK A01 T00071031  RH  076%=      5-min Rain = 0
KAM1 160439Z 21007KT 01/M03 A3011 RMK A01 T00061032  RH  076%=      5-min Rain = 0
KAM1 160440Z 21007KT 01/M03 A3011 RMK A01 T00051032  RH  076%=      5-min Rain = 0
KAM1 160441Z 21007KT 00/M03 A3011 RMK A01 T00041033  RH  076%=      5-min Rain = 0
KAM1 160442Z 21007KT 00/M03 A3011 RMK A01 T00031033  RH  077%=      5-min Rain = 0
KAM1 160443Z 22007KT 00/M03 A3011 RMK A01 T00031033  RH  077%=      5-min Rain = 0
KAM1 160444Z 22007KT 00/M03 A3011 RMK A01 T00021033  RH  077%=      5-min Rain = 0
KAM1 160445Z 22007KT 00/M03 A3011 RMK A01 T00011034  RH  077%=      5-min Rain = 0
KAM1 160446Z 22007KT 00/03 A3011 RMK A01 T00000-34  RH  078%=      5-min Rain = 0
KAM1 160447Z 22007KT M00/M03 A3011 RMK A01 T10011034  RH  078%=      5-min Rain = 0
KAM1 160448Z 22007KT M00/M03 A3011 RMK A01 T10011034  RH  078%=      5-min Rain = 0
KAM1 160449Z 22007KT M00/M04 A3011 RMK A01 T10021035  RH  079%=      5-min Rain = 0
KAM1 160450Z 22007KT M00/M04 A3011 RMK A01 T10031035  RH  079%=      5-min Rain = 0
KAM1 160451Z 22007KT M00/M04 A3011 RMK A01 T10031035  RH  079%=      5-min Rain = 0
KAM1 160452Z 22007KT M00/M04 A3011 RMK A01 T10031035  RH  079%=      5-min Rain = 0
KAM1 160453Z 22007KT M00/M04 A3011 RMK A01 T10031035  RH  079%=      5-min Rain = 0
KAM1 160454Z 22007KT M00/M03 A3011 RMK A01 T10031034  RH  080%=      5-min Rain = 0
KAM1 160455Z 22007KT M00/M03 A3011 RMK A01 T10031034  RH  080%=      5-min Rain = 0
KAM1 160456Z 22007KT M00/M03 A3011 RMK A01 T10031034  RH  080%=      5-min Rain = 0
KAM1 160457Z 22007KT M00/M03 A3011 RMK A01 T10031034  RH  080%=      5-min Rain = 0
KAM1 160458Z 22007KT M00/M03 A301 RMK A01 T10031034  RH  080%=      5-min Rain = 0
KAM1 160459Z 22007KT M00/M03 A301 RMK A01 T10031034  RH  080%=      5-min Rain = 0
KAM1 160500Z 21007KT M00/M03 A301 RMK A01 T10031033  RH  080%=      5-min Rain = 0
KAM1 160501Z 22007KT M00/M03 A301 RMK A01 T10021033  RH  080%=      5-min Rain = 0
KAM1 160502Z 22007KT M00/M03 A301 RMK A01 T10021033  RH  080%=      5-min Rain = 0
KAM1 160503Z 22007KT M00/M03 A301 RMK A01 T10031034  RH  080%=      5-min Rain = 0
KAM1 160504Z 22007KT M00/M03 A301 RMK A01 T10031034  RH  080%=      5-min Rain = 0
KAM1 160505Z 22007KT M00/M03 A301 RMK A01 T10041034  RH  080%=      5-min Rain = 0
KAM1 160506Z 22007KT M00/M03 A301 RMK A01 T10041034  RH  080%=      5-min Rain = 0
KAM1 160507Z 22007KT M01/M03 A301 RMK A01 T10051034  RH  081%=      5-min Rain = 0
KAM1 160508Z 22007KT M01/M03 A301 RMK A01 T10051033  RH  081%=      5-min Rain = 0
KAM1 160509Z 22007KT M00/M03 A301 RMK A01 T10041033  RH  081%=      5-min Rain = 0
KAM1 160510Z 22007KT M00/M03 A301 RMK A01 T10041033  RH  081%=      5-min Rain = 0
KAM1 160511Z 22007KT M00/M03 A301 RMK A01 T10031032  RH  081%=      5-min Rain = 0
KAM1 160512Z 22007KT M00/M03 A301 RMK A01 T10031032  RH  081%=      5-min Rain = 0
KAM1 160513Z 22007KT M00/M03 A301 RMK A01 T10021031  RH  081%=      5-min Rain = 0
KAM1 160514Z 22007KT M00/M03 A301 RMK A01 T10011031  RH  081%=      5-min Rain = 0
KAM1 160515Z 22007KT M00/M03 A301 RMK A01 T10011031  RH  080%=      5-min Rain = 0
KAM1 160516Z 22007KT M00/M03 A301 RMK A01 T10011031  RH  080%=      5-min Rain = 0
KAM1 160517Z 22007KT M00/M03 A301 RMK A01 T10011031  RH  080%=      5-min Rain = 0
KAM1 160518Z 22007KT M00/M03 A301 RMK A01 T10011032  RH  080%=      5-min Rain = 0
KAM1 160519Z 22007KT M00/M03 A301 RMK A01 T10011032  RH  080%=      5-min Rain = 0
KAM1 160520Z 22007KT M00/M03 A301 RMK A01 T10021032  RH  080%=      5-min Rain = 0
KAM1 160521Z 22007KT M00/M03 A301 RMK A01 T10021032  RH  080%=      5-min Rain = 0
KAM1 160522Z 22007KT M00/M03 A301 RMK A01 T10021032  RH  080%=      5-min Rain = 0
KAM1 160523Z 22008KT M00/M03 A301 RMK A01 T10021032  RH  080%=      5-min Rain = 0
KAM1 160524Z 22008KT M00/M03 A301 RMK A01 T10021032  RH  080%=      5-min Rain = 0
KAM1 160525Z 22008KT M00/M03 A301 RMK A01 T10011031  RH  080%=      5-min Rain = 0
KAM1 160526Z 22008KT M00/M03 A301 RMK A01 T10011031  RH  080%=      5-min Rain = 0
KAM1 160527Z 22008KT 00/03 A301 RMK A01 T00-00-31  RH  080%=      5-min Rain = 0
KAM1 160528Z 22008KT 00/M03 A301 RMK A01 T00011031  RH  079%=      5-min Rain = 0
KAM1 160529Z 22008KT 00/M03 A301 RMK A01 T00021030  RH  079%=      5-min Rain = 0
KAM1 160530Z 22007KT 00/M03 A301 RMK A01 T00031030  RH  079%=      5-min Rain = 0
KAM1 160531Z 22008KT 00/M03 A301 RMK A01 T00031030  RH  078%=      5-min Rain = 0
KAM1 160532Z 22008KT 00/M03 A301 RMK A01 T00031030  RH  078%=      5-min Rain = 0
KAM1 160533Z 22008KT 00/M03 A301 RMK A01 T00041030  RH  078%=      5-min Rain = 0
KAM1 160534Z 22008KT 00/M03 A301 RMK A01 T00041030  RH  078%=      5-min Rain = 0
KAM1 160535Z 22007KT 00/M03 A301 RMK A01 T00031031  RH  078%=      5-min Rain = 0
KAM1 160536Z 22008KT 00/M03 A301 RMK A01 T00031031  RH  078%=      5-min Rain = 0
KAM1 160537Z 22007KT 00/M03 A301 RMK A01 T00031031  RH  078%=      5-min Rain = 0
KAM1 160538Z 22007KT 00/M03 A301 RMK A01 T00021031  RH  078%=      5-min Rain = 0
KAM1 160539Z 22007KT 00/M03 A301 RMK A01 T00021031  RH  078%=      5-min Rain = 0
KAM1 160540Z 22007KT 00/M03 A301 RMK A01 T00021031  RH  078%=      5-min Rain = 0
KAM1 160541Z 22007KT 00/M03 A301 RMK A01 T00011032  RH  078%=      5-min Rain = 0
KAM1 160542Z 22007KT 00/03 A301 RMK A01 T00000-33  RH  078%=      5-min Rain = 0
KAM1 160543Z 22007KT 00/03 A301 RMK A01 T00-00-33  RH  079%=      5-min Rain = 0
KAM1 160544Z 22007KT M00/M03 A301 RMK A01 T10011033  RH  079%=      5-min Rain = 0
KAM1 160545Z 22007KT M00/M03 A301 RMK A01 T10011033  RH  079%=      5-min Rain = 0
KAM1 160546Z 22007KT M00/M03 A301 RMK A01 T10021033  RH  079%=      5-min Rain = 0
KAM1 160547Z 22007KT M00/M03 A301 RMK A01 T10021034  RH  079%=      5-min Rain = 0
KAM1 160548Z 22008KT M00/M03 A301 RMK A01 T10031034  RH  079%=      5-min Rain = 0
KAM1 160549Z 22008KT M00/M03 A301 RMK A01 T10031034  RH  080%=      5-min Rain = 0
KAM1 160550Z 22008KT M00/M03 A301 RMK A01 T10041034  RH  080%=      5-min Rain = 0
KAM1 160551Z 22008KT M00/M03 A301 RMK A01 T10041034  RH  080%=      5-min Rain = 0
KAM1 160552Z 23008KT M00/M04 A301 RMK A01 T10041035  RH  080%=      5-min Rain = 0
KAM1 160553Z 23008KT M01/M04 A301 RMK A01 T10051035  RH  080%=      5-min Rain = 0
KAM1 160554Z 23008KT M01/M04 A301 RMK A01 T10051035  RH  080%=      5-min Rain = 0
KAM1 160555Z 23009KT M01/M04 A301 RMK A01 T10061036  RH  080%=      5-min Rain = 0
KAM1 160556Z 23009KT M01/M04 A301 RMK A01 T10061035  RH  081%=      5-min Rain = 0
KAM1 160557Z 23008KT M01/M04 A301 RMK A01 T10061035  RH  081%=      5-min Rain = 0
KAM1 160558Z 23008KT M01/M04 A301 RMK A01 T10061035  RH  081%=      5-min Rain = 0
KAM1 160559Z 23009KT M01/M04 A301 RMK A01 T10061035  RH  081%=      5-min Rain = 0

Page generated in 0.1465 seconds.